DW6957 Weather Reports


time (UTC)temp
C
wind
direction
speed
KPH
gust
KPH
rain 1hr
cm
rain 24hr
cm
rain mn
cm
humidity
%
barometer
mb
20260906204757 33 188 24.1 33.8 0.00 0.41 0.41 42 1015.4
20260906204651 33 167 20.9 33.8 0.00 0.41 0.41 42 1015.4
20260906204529 33 144 20.9 33.8 0.00 0.41 0.41 42 1015.5
20260906204446 33 151 24.1 33.8 0.00 0.41 0.41 42 1015.5
20260906204359 33 177 27.4 33.8 0.00 0.41 0.41 41 1015.5
20260906204251 33 150 27.4 33.8 0.00 0.41 0.41 42 1015.5
20260906204127 32 162 25.7 33.8 0.00 0.41 0.41 43 1015.4
20260906204021 32 172 24.1 38.6 0.00 0.41 0.41 45 1015.5
20260906203916 32 155 24.1 40.2 0.00 0.41 0.41 45 1015.5
20260906203833 32 136 24.1 40.2 0.00 0.41 0.41 45 1015.5
20260906203725 32 155 24.1 40.2 0.00 0.41 0.41 45 1015.5
20260906203645 32 157 25.7 41.8 0.00 0.41 0.41 45 1015.5
20260906203604 32 154 25.7 41.8 0.00 0.41 0.41 44 1015.5
20260906203457 32 151 22.5 43.5 0.00 0.41 0.41 46 1015.5
20260906203352 32 135 24.1 43.5 0.00 0.41 0.41 45 1015.5
20260906203245 32 133 27.4 43.5 0.00 0.41 0.41 45 1015.5
20260906203137 32 148 29.0 43.5 0.00 0.41 0.41 45 1015.7
20260906203055 32 152 29.0 43.5 0.00 0.41 0.41 45 1015.6
20260906202928 32 150 30.6 43.5 0.00 0.41 0.41 45 1015.6
20260906202824 32 168 29.0 43.5 0.00 0.41 0.41 44 1015.7
20260906202718 32 148 30.6 43.5 0.00 0.41 0.41 45 1015.7
20260906202619 32 144 29.0 43.5 0.00 0.41 0.41 44 1015.7
20260906202534 32 145 29.0 45.1 0.00 0.41 0.41 45 1015.7
20260906202450 32 138 27.4 45.1 0.00 0.41 0.41 45 1015.8
20260906202323 32 130 29.0 45.1 0.00 0.41 0.41 44 1015.8
20260906202216 32 160 27.4 45.1 0.00 0.41 0.41 45 1015.8
20260906202130 32 147 25.7 45.1 0.00 0.41 0.41 46 1015.8
20260906202025 32 144 27.4 45.1 0.00 0.41 0.41 46 1015.8
20260906201938 32 186 29.0 45.1 0.00 0.41 0.41 45 1015.8
20260906201834 32 144 27.4 45.1 0.00 0.41 0.41 45 1015.8
20260906201728 32 157 27.4 45.1 0.00 0.41 0.41 45 1015.8
20260906201627 32 151 29.0 45.1 0.00 0.41 0.41 45 1015.9
20260906201542 32 145 25.7 45.1 0.00 0.41 0.41 45 1015.9
20260906201437 32 132 22.5 40.2 0.00 0.41 0.41 45 1015.9
20260906201329 32 180 22.5 40.2 0.00 0.41 0.41 45 1015.9
20260906201223 32 160 27.4 40.2 0.00 0.41 0.41 46 1015.9
20260906201120 32 170 25.7 41.8 0.00 0.41 0.41 46 1015.9
20260906201018 32 128 24.1 41.8 0.00 0.41 0.41 46 1015.9
20260906200932 32 163 24.1 41.8 0.00 0.41 0.41 46 1015.9
20260906200824 32 176 27.4 41.8 0.00 0.41 0.41 46 1015.9
20260906200721 32 174 25.7 41.8 0.00 0.41 0.41 45 1015.9
20260906200618 32 149 24.1 41.8 0.00 0.41 0.41 46 1015.9
20260906200533 32 175 24.1 43.5 0.00 0.41 0.41 45 1015.9
20260906200432 32 167 27.4 43.5 0.00 0.41 0.41 45 1015.9
20260906200326 32 168 29.0 43.5 0.00 0.41 0.41 45 1015.9
20260906200222 32 167 27.4 43.5 0.00 0.41 0.41 45 1015.9
20260906200119 32 151 25.7 43.5 0.00 0.41 0.41 46 1015.9
20260906200033 32 170 25.7 43.5 0.00 0.41 0.41 46 1015.9
20260906195929 32 154 24.1 43.5 0.00 0.41 0.41 46 1015.8
20260906195846 32 181 25.7 43.5 0.00 0.41 0.41 46 1015.8
20260906195800 32 170 29.0 43.5 0.00 0.41 0.41 46 1015.9
20260906195655 32 163 29.0 43.5 0.00 0.41 0.41 46 1015.9
20260906195529 32 167 30.6 40.2 0.00 0.41 0.41 45 1015.9
20260906195423 32 163 32.2 40.2 0.00 0.41 0.41 46 1016.0
20260906195336 32 197 30.6 40.2 0.00 0.41 0.41 46 1016.0
20260906195231 32 184 27.4 38.6 0.00 0.41 0.41 45 1016.0
20260906195124 32 169 25.7 38.6 0.00 0.41 0.41 45 1016.0
20260906195039 32 159 25.7 38.6 0.00 0.41 0.41 46 1016.0
20260906194931 32 165 27.4 38.6 0.00 0.41 0.41 44 1016.1
20260906194829 32 180 29.0 38.6 0.00 0.41 0.41 44 1016.1
20260906194721 32 165 29.0 38.6 0.00 0.41 0.41 45 1016.1
20260906194615 32 190 25.7 38.6 0.00 0.41 0.41 45 1016.1
20260906194533 32 179 24.1 38.6 0.00 0.41 0.41 46 1016.1
20260906194427 32 169 24.1 38.6 0.00 0.41 0.41 45 1016.2
20260906194323 32 169 27.4 38.6 0.00 0.41 0.41 45 1016.2
20260906194217 32 196 25.7 38.6 0.00 0.41 0.41 45 1016.2
20260906194134 32 160 22.5 38.6 0.00 0.41 0.41 46 1016.2
20260906194056 32 132 22.5 38.6 0.00 0.41 0.41 47 1016.2
20260906193947 32 165 25.7 38.6 0.00 0.41 0.41 45 1016.3
20260906193818 32 167 25.7 38.6 0.00 0.41 0.41 46 1016.3
20260906193731 32 170 24.1 38.6 0.00 0.41 0.41 46 1016.3
20260906193625 32 176 22.5 38.6 0.00 0.41 0.41 47 1016.4
20260906193546 32 153 24.1 38.6 0.00 0.41 0.41 46 1016.4
20260906193442 32 170 25.7 38.6 0.00 0.41 0.41 46 1016.3
20260906193357 32 155 25.7 38.6 0.00 0.41 0.41 46 1016.4
20260906193250 32 173 25.7 38.6 0.00 0.41 0.41 46 1016.4
20260906193122 32 192 27.4 38.6 0.00 0.41 0.41 46 1016.4
20260906193024 32 167 29.0 38.6 0.00 0.41 0.41 46 1016.4
20260906192920 32 171 30.6 40.2 0.00 0.41 0.41 45 1016.4
20260906192834 32 181 29.0 40.2 0.00 0.41 0.41 45 1016.4
20260906192728 32 151 25.7 40.2 0.00 0.41 0.41 46 1016.5
20260906192623 32 165 25.7 40.2 0.00 0.41 0.41 47 1016.5
20260906192538 32 153 27.4 40.2 0.00 0.41 0.41 46 1016.5
20260906192430 32 175 27.4 40.2 0.00 0.41 0.41 46 1016.5
20260906192327 32 165 27.4 40.2 0.00 0.41 0.41 46 1016.6
20260906192225 32 169 27.4 40.2 0.00 0.41 0.41 45 1016.5
20260906192138 32 177 25.7 40.2 0.00 0.41 0.41 46 1016.4
20260906192034 32 161 25.7 38.6 0.00 0.41 0.41 46 1016.5
20260906191949 32 164 25.7 38.6 0.00 0.41 0.41 46 1016.5
20260906191828 32 167 27.4 38.6 0.00 0.41 0.41 46 1016.5
20260906191721 32 182 27.4 38.6 0.00 0.41 0.41 46 1016.5
20260906191636 31 157 24.1 38.6 0.00 0.41 0.41 47 1016.5
20260906191550 31 189 25.7 38.6 0.00 0.41 0.41 46 1016.5
20260906191422 31 179 25.7 38.6 0.00 0.41 0.41 46 1016.6
20260906191336 31 186 25.7 38.6 0.00 0.41 0.41 47 1016.5
20260906191253 31 188 24.1 38.6 0.00 0.41 0.41 46 1016.5
20260906191146 31 167 25.7 38.6 0.00 0.41 0.41 47 1016.6
20260906191043 31 165 27.4 38.6 0.00 0.41 0.41 46 1016.6
20260906190935 31 176 27.4 38.6 0.00 0.41 0.41 47 1016.6
20260906190831 31 157 27.4 38.6 0.00 0.41 0.41 47 1016.6
20260906190725 31 175 25.7 38.6 0.00 0.41 0.41 48 1016.6
20260906190621 31 173 25.7 38.6 0.00 0.41 0.41 48 1016.6
20260906190540 31 168 27.4 37.0 0.00 0.41 0.41 47 1016.7
20260906190432 31 167 27.4 37.0 0.00 0.41 0.41 48 1016.7
20260906190349 31 173 27.4 37.0 0.00 0.41 0.41 47 1016.7
20260906190229 31 157 24.1 37.0 0.00 0.41 0.41 48 1016.7
20260906190126 31 167 24.1 37.0 0.00 0.41 0.41 48 1016.7
20260906190020 31 159 25.7 37.0 0.00 0.41 0.41 50 1016.8
20260906185936 31 153 25.7 37.0 0.00 0.41 0.41 50 1016.8
20260906185831 31 172 24.1 35.4 0.00 0.41 0.41 50 1016.8
20260906185724 31 151 24.1 37.0 0.00 0.41 0.41 50 1016.8
20260906185622 31 157 24.1 37.0 0.00 0.41 0.41 50 1016.9
20260906185520 31 169 24.1 37.0 0.00 0.41 0.41 50 1016.8
20260906185433 31 161 25.7 37.0 0.00 0.41 0.41 52 1016.8
20260906185325 31 151 24.1 37.0 0.00 0.41 0.41 52 1016.9
20260906185223 31 178 25.7 37.0 0.00 0.41 0.41 53 1016.9
20260906185117 31 167 25.7 37.0 0.00 0.41 0.41 51 1016.8
20260906185036 31 169 25.7 37.0 0.00 0.41 0.41 52 1016.8
20260906184928 31 154 27.4 37.0 0.00 0.41 0.41 51 1016.8
20260906184825 31 155 25.7 37.0 0.00 0.41 0.41 52 1016.9
20260906184739 31 153 24.1 30.6 0.00 0.41 0.41 52 1016.8
20260906184652 31 181 22.5 30.6 0.00 0.41 0.41 53 1016.9
20260906184546 31 143 20.9 30.6 0.00 0.41 0.41 53 1016.9
20260906184438 30 148 20.9 33.8 0.00 0.41 0.41 53 1016.9
20260906184330 30 176 24.1 33.8 0.00 0.41 0.41 53 1016.9
20260906184248 30 128 20.9 33.8 0.00 0.41 0.41 53 1016.9
20260906184123 30 146 20.9 33.8 0.00 0.41 0.41 55 1016.9
20260906184022 30 164 22.5 33.8 0.00 0.41 0.41 54 1017.0
20260906183917 30 169 22.5 33.8 0.00 0.41 0.41 53 1017.0
20260906183833 30 152 20.9 33.8 0.00 0.41 0.41 54 1017.0
20260906183748 30 188 20.9 33.8 0.00 0.41 0.41 55 1017.1
20260906183620 30 165 24.1 33.8 0.00 0.41 0.41 54 1017.0
20260906183537 30 149 25.7 33.8 0.00 0.41 0.41 54 1017.0
20260906183429 30 173 24.1 33.8 0.00 0.41 0.41 54 1017.0
20260906183325 30 159 24.1 37.0 0.00 0.41 0.41 53 1017.0
20260906183226 30 175 22.5 37.0 0.00 0.41 0.41 55 1017.0
20260906183121 30 175 24.1 37.0 0.00 0.41 0.41 55 1017.0
20260906183036 30 158 25.7 37.0 0.00 0.41 0.41 54 1017.1
20260906182929 30 127 24.1 37.0 0.00 0.41 0.41 54 1017.0
20260906182826 30 160 22.5 37.0 0.00 0.41 0.41 55 1017.0
20260906182743 30 138 24.1 37.0 0.00 0.41 0.41 54 1017.0
20260906182659 30 146 24.1 37.0 0.00 0.41 0.41 55 1017.0
20260906182553 30 161 27.4 37.0 0.00 0.41 0.41 55 1017.1
20260906182424 30 144 24.1 37.0 0.00 0.41 0.41 56 1017.1
20260906182318 30 165 20.9 33.8 0.00 0.41 0.41 55 1017.1
20260906182216 30 144 22.5 33.8 0.00 0.41 0.41 56 1017.1
20260906182129 30 143 20.9 33.8 0.00 0.41 0.41 56 1017.1
20260906182044 30 173 19.3 33.8 0.00 0.41 0.41 56 1017.1
20260906181939 30 171 20.9 33.8 0.00 0.41 0.41 56 1017.1
20260906181831 30 169 22.5 33.8 0.00 0.41 0.41 55 1017.1
20260906181725 30 157 25.7 33.8 0.00 0.41 0.41 55 1017.2
20260906181619 30 178 25.7 33.8 0.00 0.41 0.41 55 1017.2
20260906181535 30 166 25.7 33.8 0.00 0.41 0.41 55 1017.2
20260906181430 30 185 22.5 33.8 0.00 0.41 0.41 56 1017.2
20260906181329 29 170 24.1 33.8 0.00 0.41 0.41 55 1017.3
20260906181227 29 142 25.7 33.8 0.00 0.41 0.41 55 1017.3
20260906181124 30 132 25.7 33.8 0.00 0.41 0.41 56 1017.3
20260906181040 30 157 24.1 33.8 0.00 0.41 0.41 57 1017.3
20260906180953 30 134 22.5 33.8 0.00 0.41 0.41 57 1017.3
20260906180846 30 149 20.9 33.8 0.00 0.41 0.41 58 1017.3
20260906180739 29 154 20.9 33.8 0.00 0.41 0.41 58 1017.3
20260906180652 29 142 19.3 33.8 0.00 0.41 0.41 58 1017.3
20260906180526 29 157 20.9 33.8 0.00 0.41 0.41 58 1017.4
20260906180426 29 157 22.5 33.8 0.00 0.41 0.41 57 1017.4
20260906180340 29 140 24.1 33.8 0.00 0.41 0.41 56 1017.4
20260906180233 30 146 24.1 33.8 0.00 0.41 0.41 56 1017.4
20260906180126 30 145 20.9 32.2 0.00 0.41 0.41 57 1017.4
20260906180020 30 164 20.9 32.2 0.00 0.41 0.41 57 1017.5
20260906175934 30 162 22.5 32.2 0.00 0.41 0.41 57 1017.4
20260906175827 30 145 22.5 32.2 0.00 0.41 0.41 57 1017.4
20260906175722 29 144 20.9 32.2 0.00 0.41 0.41 56 1017.4
20260906175635 29 170 22.5 32.2 0.00 0.41 0.41 57 1017.4
20260906175517 29 150 25.7 32.2 0.00 0.41 0.41 56 1017.5
20260906175429 29 144 25.7 32.2 0.00 0.41 0.41 56 1017.5
20260906175325 29 153 22.5 32.2 0.00 0.41 0.41 57 1017.6
20260906175239 29 142 22.5 32.2 0.00 0.41 0.41 57 1017.6
20260906175153 29 162 20.9 32.2 0.00 0.41 0.41 58 1017.5
20260906175025 29 163 22.5 32.2 0.00 0.41 0.41 57 1017.6
20260906174937 29 144 20.9 32.2 0.00 0.41 0.41 57 1017.6
20260906174829 29 166 20.9 32.2 0.00 0.41 0.41 56 1017.6
20260906174721 29 148 20.9 32.2 0.00 0.41 0.41 57 1017.6
20260906174634 29 171 22.5 32.2 0.00 0.41 0.41 57 1017.6
20260906174548 29 148 24.1 32.2 0.00 0.41 0.41 56 1017.6
20260906174427 29 152 22.5 32.2 0.00 0.41 0.41 56 1017.6
20260906174324 29 159 20.9 32.2 0.00 0.41 0.41 59 1017.6
20260906174238 29 153 22.5 32.2 0.00 0.41 0.41 59 1017.6
20260906174154 28 148 24.1 32.2 0.00 0.41 0.41 58 1017.6
20260906174029 28 136 22.5 32.2 0.00 0.41 0.41 58 1017.6
20260906173944 28 134 22.5 32.2 0.00 0.41 0.41 59 1017.6
20260906173856 28 174 19.3 30.6 0.00 0.41 0.41 58 1017.6
20260906173729 28 147 19.3 30.6 0.00 0.41 0.41 58 1017.6
20260906173646 28 139 20.9 30.6 0.00 0.41 0.41 58 1017.6
20260906173539 28 168 22.5 30.6 0.00 0.41 0.41 57 1017.7
20260906173430 28 148 20.9 30.6 0.00 0.41 0.41 58 1017.7
20260906173327 28 150 19.3 30.6 0.00 0.41 0.41 60 1017.7
20260906173221 28 157 19.3 30.6 0.00 0.41 0.41 60 1017.7
20260906173141 28 141 20.9 30.6 0.00 0.41 0.41 60 1017.7
20260906173035 28 158 22.5 30.6 0.00 0.41 0.41 60 1017.8
20260906172927 28 152 22.5 30.6 0.00 0.41 0.41 61 1017.7
20260906172823 28 133 22.5 30.6 0.00 0.41 0.41 60 1017.8
20260906172717 28 153 20.9 30.6 0.00 0.41 0.41 61 1017.9
20260906172631 28 149 20.9 30.6 0.00 0.41 0.41 61 1017.9
20260906172555 28 146 19.3 29.0 0.00 0.41 0.41 61 1017.9
20260906172510 28 163 19.3 25.7 0.00 0.41 0.41 61 1017.9
20260906172340 28 94 19.3 25.7 0.00 0.41 0.41 62 1017.9
20260906172254 28 150 19.3 25.7 0.00 0.41 0.41 61 1017.9
20260906172125 28 141 19.3 25.7 0.00 0.41 0.41 61 1017.9
20260906172020 28 151 20.9 25.7 0.00 0.41 0.41 61 1018.0
20260906171934 28 153 19.3 25.7 0.00 0.41 0.41 62 1017.9
20260906171827 28 136 17.7 24.1 0.00 0.41 0.41 62 1018.0
20260906171721 27 165 16.1 24.1 0.00 0.41 0.41 62 1017.9
20260906171635 27 144 17.7 24.1 0.00 0.41 0.41 62 1017.9
20260906171532 27 150 16.1 24.1 0.00 0.41 0.41 63 1018.0
20260906171426 27 142 16.1 27.4 0.00 0.41 0.41 64 1018.0
20260906171342 27 136 17.7 27.4 0.00 0.41 0.41 64 1018.0
20260906171214 27 150 17.7 27.4 0.00 0.41 0.41 63 1018.0
20260906171130 27 156 17.7 27.4 0.00 0.41 0.41 64 1018.0
20260906171027 27 148 17.7 27.4 0.00 0.41 0.41 63 1018.0
20260906170941 27 141 17.7 27.4 0.00 0.41 0.41 63 1018.0
20260906170833 27 150 16.1 27.4 0.00 0.41 0.41 63 1018.0
20260906170729 27 149 17.7 27.4 0.00 0.41 0.41 63 1018.0
20260906170626 27 141 19.3 27.4 0.00 0.41 0.41 63 1018.1
20260906170524 27 155 20.9 25.7 0.00 0.41 0.41 62 1017.7
20260906170434 27 143 19.3 27.4 0.00 0.41 0.41 63 1018.0
20260906170348 27 167 19.3 27.4 0.00 0.41 0.41 63 1018.0
20260906170224 27 168 17.7 29.0 0.00 0.41 0.41 63 1018.1
20260906170138 27 131 17.7 30.6 0.00 0.41 0.41 63 1018.0
20260906170015 27 165 17.7 30.6 0.00 0.41 0.41 63 1018.1
20260906165930 27 140 19.3 30.6 0.00 0.41 0.41 63 1018.1
20260906165843 27 151 17.7 30.6 0.00 0.41 0.41 62 1018.1
20260906165756 27 149 16.1 30.6 0.00 0.41 0.41 64 1018.1
20260906165633 27 146 17.7 30.6 0.00 0.41 0.41 62 1018.0
20260906165528 27 160 22.5 30.6 0.00 0.41 0.41 62 1018.0
20260906165422 27 153 22.5 30.6 0.00 0.41 0.41 62 1018.1
20260906165316 27 146 22.5 30.6 0.00 0.41 0.41 62 1018.1
20260906165234 27 144 22.5 30.6 0.00 0.41 0.41 62 1018.1
20260906165128 27 146 19.3 27.4 0.00 0.41 0.41 62 1018.1
20260906165023 27 140 17.7 27.4 0.00 0.41 0.41 63 1018.1
20260906164923 27 148 17.7 30.6 0.00 0.41 0.41 62 1018.2
20260906164817 27 135 19.3 30.6 0.00 0.41 0.41 63 1018.1
20260906164734 27 148 17.7 30.6 0.00 0.41 0.41 63 1018.1
20260906164627 27 123 17.7 32.2 0.00 0.41 0.41 63 1018.1
20260906164523 27 153 19.3 32.2 0.00 0.41 0.41 63 1018.2
20260906164435 27 153 19.3 32.2 0.00 0.41 0.41 63 1018.1
20260906164328 27 124 19.3 32.2 0.00 0.41 0.41 63 1018.2
20260906164221 27 152 20.9 37.0 0.00 0.41 0.41 63 1018.2
20260906164142 27 140 22.5 37.0 0.00 0.41 0.41 63 1018.1
20260906164036 27 150 22.5 37.0 0.00 0.41 0.41 64 1018.1
20260906163928 27 156 20.9 37.0 0.00 0.41 0.41 64 1018.2
20260906163825 27 148 22.5 37.0 0.00 0.41 0.41 64 1018.2
20260906163719 27 140 22.5 37.0 0.00 0.41 0.41 65 1018.2
20260906163616 27 161 20.9 37.0 0.00 0.41 0.41 65 1018.1
20260906163531 26 138 20.9 37.0 0.00 0.41 0.41 65 1018.1
20260906163430 26 136 20.9 37.0 0.00 0.41 0.41 65 1018.1
20260906163348 26 143 24.1 37.0 0.00 0.41 0.41 64 1018.1
20260906163223 26 138 25.7 37.0 0.00 0.41 0.41 64 1018.1
20260906163138 26 146 25.7 35.4 0.00 0.41 0.41 64 1018.0
20260906163058 26 139 24.1 32.2 0.00 0.41 0.41 65 1018.0
20260906162950 26 145 24.1 32.2 0.00 0.41 0.41 65 1018.0
20260906162826 26 149 24.1 32.2 0.00 0.41 0.41 65 1018.0
20260906162723 26 155 22.5 32.2 0.00 0.41 0.41 65 1018.0
20260906162642 26 138 24.1 32.2 0.00 0.41 0.41 66 1018.0
20260906162559 26 134 24.1 32.2 0.00 0.41 0.41 66 1018.0
20260906162431 26 138 19.3 30.6 0.00 0.41 0.41 68 1017.9
20260906162327 26 165 20.9 30.6 0.00 0.41 0.41 67 1018.0
20260906162221 26 136 22.5 30.6 0.00 0.41 0.41 66 1018.0
20260906162117 26 126 20.9 30.6 0.00 0.41 0.41 67 1018.0
20260906162033 26 148 20.9 30.6 0.00 0.41 0.41 67 1018.0
20260906161945 26 153 20.9 30.6 0.00 0.41 0.41 67 1018.0
20260906161821 26 161 20.9 30.6 0.00 0.41 0.41 68 1018.0
20260906161715 26 162 20.9 30.6 0.00 0.41 0.41 67 1018.0
20260906161632 26 175 20.9 30.6 0.00 0.41 0.41 67 1018.0
20260906161532 26 155 19.3 30.6 0.00 0.41 0.41 67 1018.0
20260906161423 26 163 17.7 30.6 0.00 0.41 0.41 67 1018.0
20260906161317 26 158 17.7 30.6 0.00 0.41 0.41 68 1018.0
20260906161231 26 153 19.3 30.6 0.00 0.41 0.41 67 1018.0
20260906161125 26 143 20.9 30.6 0.00 0.41 0.41 66 1018.0
20260906161044 26 150 20.9 30.6 0.00 0.41 0.41 67 1018.0
20260906160936 26 139 20.9 30.6 0.00 0.41 0.41 67 1018.0
20260906160850 26 155 19.3 30.6 0.00 0.41 0.41 66 1018.0
20260906160722 26 143 17.7 29.0 0.00 0.41 0.41 67 1018.0
20260906160637 26 157 19.3 29.0 0.00 0.41 0.41 66 1018.0
20260906160534 27 175 19.3 29.0 0.00 0.41 0.41 66 1018.0
20260906160435 27 143 17.7 27.4 0.00 0.41 0.41 67 1017.9
20260906160329 27 191 19.3 27.4 0.00 0.41 0.41 67 1018.0
20260906160222 26 167 20.9 27.4 0.00 0.41 0.41 66 1018.0
20260906160119 26 167 20.9 29.0 0.00 0.41 0.41 66 1018.0
20260906160017 26 194 20.9 29.0 0.00 0.41 0.41 67 1017.9
20260906155929 26 148 20.9 29.0 0.00 0.41 0.41 67 1018.1
20260906155825 26 167 20.9 29.0 0.00 0.41 0.41 67 1018.0
20260906155739 26 168 20.9 29.0 0.00 0.41 0.41 67 1018.0
20260906155635 26 174 20.9 29.0 0.00 0.41 0.41 66 1018.0
20260906155530 26 167 20.9 29.0 0.00 0.41 0.41 67 1018.0
20260906155425 26 142 19.3 29.0 0.00 0.41 0.41 68 1018.0
20260906155318 26 184 19.3 29.0 0.00 0.41 0.41 68 1018.0
20260906155232 26 161 19.3 29.0 0.00 0.41 0.41 69 1018.1
20260906155127 26 183 17.7 27.4 0.00 0.41 0.41 69 1018.0
20260906155025 26 162 17.7 30.6 0.00 0.41 0.41 69 1018.0
20260906154918 26 175 17.7 30.6 0.00 0.41 0.41 69 1018.0
20260906154836 26 163 17.7 30.6 0.00 0.41 0.41 69 1018.0
20260906154727 26 168 17.7 30.6 0.00 0.41 0.41 70 1018.0
20260906154620 26 163 17.7 30.6 0.00 0.41 0.41 69 1018.0
20260906154534 26 163 19.3 30.6 0.00 0.41 0.41 69 1018.0
20260906154426 26 155 19.3 30.6 0.00 0.41 0.41 69 1018.0
20260906154320 26 167 19.3 30.6 0.00 0.41 0.41 69 1018.0
20260906154217 26 159 19.3 30.6 0.00 0.41 0.41 69 1017.9
20260906154130 26 169 20.9 30.6 0.00 0.41 0.41 69 1017.9
20260906154028 25 171 20.9 30.6 0.00 0.41 0.41 69 1017.9
20260906153947 25 181 19.3 25.7 0.00 0.41 0.41 70 1017.9
20260906153839 25 156 17.7 24.1 0.00 0.41 0.41 71 1017.9
20260906153755 25 180 17.7 24.1 0.00 0.41 0.41 71 1017.9
20260906153628 25 196 17.7 24.1 0.00 0.41 0.41 70 1017.9
20260906153526 25 165 16.1 24.1 0.00 0.41 0.41 71 1017.9
20260906153419 25 167 16.1 24.1 0.00 0.41 0.41 71 1017.9
20260906153336 25 152 16.1 24.1 0.00 0.41 0.41 71 1017.9
20260906153233 25 159 14.5 24.1 0.00 0.41 0.41 72 1017.9
20260906153129 25 165 14.5 24.1 0.00 0.41 0.41 73 1017.9
20260906153029 25 150 16.1 24.1 0.00 0.41 0.41 72 1017.9
20260906152942 25 163 17.7 24.1 0.00 0.41 0.41 72 1017.9
20260906152834 25 167 17.7 24.1 0.00 0.41 0.41 72 1017.9
20260906152727 25 170 17.7 24.1 0.00 0.41 0.41 73 1017.9
20260906152620 25 182 19.3 24.1 0.00 0.41 0.41 73 1017.9
20260906152534 25 161 17.7 24.1 0.00 0.41 0.41 73 1017.9
20260906152427 25 171 16.1 22.5 0.00 0.41 0.41 73 1017.9
20260906152324 25 152 16.1 22.5 0.00 0.41 0.41 73 1017.9
20260906152222 25 161 16.1 24.1 0.00 0.41 0.41 73 1017.9
20260906152139 25 169 16.1 24.1 0.00 0.41 0.41 73 1017.9
20260906152033 25 163 16.1 24.1 0.00 0.41 0.41 74 1017.9
20260906151929 25 175 16.1 24.1 0.00 0.41 0.41 73 1017.9
20260906151843 25 155 17.7 24.1 0.00 0.41 0.41 73 1017.9
20260906151736 25 171 16.1 24.1 0.00 0.41 0.41 73 1017.9
20260906151650 25 186 17.7 24.1 0.00 0.41 0.41 74 1017.9
20260906151545 25 167 17.7 24.1 0.00 0.41 0.41 74 1017.9
20260906151437 25 169 17.7 24.1 0.00 0.41 0.41 74 1017.9
20260906151330 24 183 17.7 24.1 0.00 0.41 0.41 74 1017.8
20260906151231 24 172 16.1 22.5 0.00 0.41 0.41 75 1017.9
20260906151125 24 173 16.1 22.5 0.00 0.41 0.41 75 1017.8
20260906151040 24 164 14.5 22.5 0.00 0.41 0.41 75 1017.8
20260906150955 24 155 12.9 22.5 0.00 0.41 0.41 75 1017.9
20260906150828 24 148 14.5 22.5 0.00 0.41 0.41 76 1017.9
20260906150726 24 171 16.1 22.5 0.00 0.41 0.41 75 1017.8
20260906150643 24 172 14.5 22.5 0.00 0.41 0.41 75 1017.8
20260906150536 24 170 12.9 22.5 0.00 0.41 0.41 76 1017.9
20260906150428 24 153 12.9 19.3 0.00 0.41 0.41 76 1017.9
20260906150321 24 171 11.3 19.3 0.00 0.41 0.41 77 1017.8
20260906150219 24 159 11.3 19.3 0.00 0.41 0.41 77 1017.7
20260906150133 24 153 12.9 19.3 0.00 0.41 0.41 77 1017.7
20260906150025 24 156 14.5 19.3 0.00 0.41 0.41 77 1017.7
20260906145937 24 184 12.9 19.3 0.00 0.41 0.41 78 1017.7
20260906145833 24 176 11.3 17.7 0.00 0.41 0.41 79 1017.7
20260906145726 24 163 11.3 17.7 0.00 0.41 0.41 79 1017.7
20260906145619 23 188 12.9 17.7 0.00 0.41 0.41 79 1017.7
20260906145534 23 186 12.9 17.7 0.00 0.41 0.41 79 1017.7
20260906145428 23 189 12.9 17.7 0.00 0.41 0.41 79 1017.8
20260906145329 23 164 12.9 17.7 0.00 0.41 0.41 80 1017.7
20260906145242 23 162 12.9 17.7 0.00 0.41 0.41 80 1017.7
20260906145118 23 162 12.9 17.7 0.00 0.41 0.41 80 1017.7
20260906145034 23 180 12.9 17.7 0.00 0.41 0.41 80 1017.8
20260906144928 23 196 14.5 17.7 0.00 0.41 0.41 80 1017.8
20260906144825 23 185 14.5 17.7 0.00 0.41 0.41 80 1017.8
20260906144739 23 182 14.5 17.7 0.00 0.41 0.41 80 1017.8
20260906144653 23 187 14.5 17.7 0.00 0.41 0.41 80 1017.8
20260906144530 23 182 12.9 17.7 0.00 0.41 0.41 81 1017.9
20260906144429 23 188 12.9 16.1 0.00 0.41 0.41 81 1017.9
20260906144326 23 184 12.9 16.1 0.00 0.41 0.41 81 1017.8
20260906144240 23 184 12.9 16.1 0.00 0.41 0.41 81 1017.8
20260906144116 23 185 12.9 16.1 0.00 0.41 0.41 81 1017.8
20260906144031 23 189 12.9 16.1 0.00 0.41 0.41 81 1017.7
20260906143925 23 200 12.9 17.7 0.00 0.41 0.41 81 1017.7
20260906143817 23 183 12.9 17.7 0.00 0.41 0.41 81 1017.7
20260906143730 23 215 12.9 17.7 0.00 0.41 0.41 81 1017.7
20260906143648 23 186 12.9 17.7 0.00 0.41 0.41 81 1017.7
20260906143544 23 190 12.9 17.7 0.00 0.41 0.41 81 1017.7
20260906143439 23 205 12.9 17.7 0.00 0.41 0.41 81 1017.7
20260906143335 23 194 12.9 17.7 0.00 0.41 0.41 81 1017.6
20260906143228 23 179 14.5 17.7 0.00 0.41 0.41 81 1017.7
20260906143124 23 196 14.5 17.7 0.00 0.41 0.41 81 1017.6
20260906143019 23 179 14.5 17.7 0.00 0.41 0.41 81 1017.6
20260906142932 23 180 14.5 17.7 0.00 0.41 0.41 81 1017.6
20260906142847 23 177 12.9 17.7 0.00 0.41 0.41 81 1017.6
20260906142723 23 191 12.9 17.7 0.00 0.41 0.41 82 1017.6
20260906142636 23 188 12.9 17.7 0.00 0.41 0.41 82 1017.6
20260906142532 22 190 14.5 17.7 0.00 0.41 0.41 82 1017.6
20260906142425 22 188 12.9 17.7 0.00 0.41 0.41 82 1017.6
20260906142319 22 188 12.9 17.7 0.00 0.41 0.41 82 1017.6
20260906142219 22 190 12.9 17.7 0.00 0.41 0.41 82 1017.6
20260906142133 22 186 12.9 17.7 0.00 0.41 0.41 82 1017.6
20260906142028 22 167 12.9 17.7 0.00 0.41 0.41 82 1017.6
20260906141923 22 180 12.9 17.7 0.00 0.41 0.41 83 1017.5
20260906141824 22 173 12.9 16.1 0.00 0.41 0.41 82 1017.5
20260906141738 22 188 12.9 16.1 0.00 0.41 0.41 82 1017.5
20260906141633 22 196 12.9 16.1 0.00 0.41 0.41 83 1017.5
20260906141529 22 194 11.3 16.1 0.00 0.41 0.41 83 1017.5
20260906141422 22 200 11.3 16.1 0.00 0.41 0.41 83 1017.4
20260906141338 22 197 12.9 16.1 0.00 0.41 0.41 83 1017.4
20260906141231 22 199 12.9 16.1 0.00 0.41 0.41 82 1017.4
20260906141145 22 200 12.9 14.5 0.00 0.41 0.41 82 1017.4
20260906141022 22 190 12.9 14.5 0.00 0.41 0.41 82 1017.4
20260906140923 22 184 12.9 16.1 0.00 0.41 0.41 82 1017.4
20260906140837 22 183 11.3 14.5 0.00 0.41 0.41 82 1017.4
20260906140731 22 200 11.3 14.5 0.00 0.41 0.41 82 1017.4
20260906140627 22 203 11.3 14.5 0.00 0.41 0.41 82 1017.4
20260906140525 22 183 11.3 14.5 0.00 0.41 0.41 82 1017.4
20260906140420 22 185 12.9 14.5 0.00 0.41 0.41 82 1017.4
20260906140337 22 192 11.3 14.5 0.00 0.41 0.41 82 1017.4
20260906140232 22 189 11.3 16.1 0.00 0.41 0.41 82 1017.4
20260906140148 22 188 11.3 16.1 0.00 0.41 0.41 82 1017.4
20260906140024 22 178 11.3 16.1 0.00 0.41 0.41 82 1017.4
20260906135922 22 173 11.3 16.1 0.00 0.41 0.41 82 1017.4
20260906135816 22 209 11.3 16.1 0.00 0.41 0.41 82 1017.4
20260906135732 22 186 11.3 16.1 0.00 0.41 0.41 82 1017.4
20260906135627 22 184 11.3 16.1 0.00 0.41 0.41 82 1017.4
20260906135524 22 182 11.3 16.1 0.00 0.41 0.41 82 1017.4
20260906135418 22 174 11.3 16.1 0.00 0.41 0.41 82 1017.4
20260906135334 22 181 11.3 16.1 0.00 0.41 0.41 82 1017.3
20260906135232 22 191 11.3 16.1 0.00 0.41 0.41 82 1017.3
20260906135127 22 169 11.3 16.1 0.00 0.41 0.41 82 1017.3
20260906135020 22 175 11.3 16.1 0.00 0.41 0.41 82 1017.3
20260906134933 22 178 11.3 16.1 0.00 0.41 0.41 82 1017.4
20260906134826 22 181 11.3 16.1 0.00 0.41 0.41 82 1017.3
20260906134720 22 173 12.9 16.1 0.00 0.41 0.41 82 1017.3
20260906134617 22 157 12.9 16.1 0.00 0.41 0.41 82 1017.4
20260906134533 22 175 12.9 16.1 0.00 0.41 0.41 82 1017.4
20260906134430 22 175 12.9 16.1 0.00 0.41 0.41 82 1017.3
20260906134327 22 164 11.3 16.1 0.00 0.41 0.41 82 1017.3
20260906134241 22 166 12.9 16.1 0.00 0.41 0.41 82 1017.3
20260906134135 22 174 11.3 16.1 0.00 0.41 0.41 82 1017.3
20260906134029 22 183 11.3 16.1 0.00 0.41 0.41 82 1017.3
20260906133923 22 186 11.3 17.7 0.00 0.41 0.41 82 1017.3
20260906133816 22 188 11.3 17.7 0.00 0.41 0.41 82 1017.3
20260906133730 22 167 11.3 17.7 0.00 0.41 0.41 82 1017.3
20260906133631 22 169 12.9 17.7 0.00 0.41 0.41 82 1017.3
20260906133525 22 173 12.9 17.7 0.00 0.41 0.41 82 1017.3
20260906133417 22 175 12.9 17.7 0.00 0.41 0.41 81 1017.3
20260906133331 22 171 12.9 17.7 0.00 0.41 0.41 82 1017.3
20260906133225 22 179 12.9 17.7 0.00 0.41 0.41 82 1017.3
20260906133120 22 172 12.9 17.7 0.00 0.41 0.41 81 1017.3
20260906133017 22 180 12.9 20.9 0.00 0.41 0.41 82 1017.2
20260906132930 22 182 12.9 20.9 0.00 0.41 0.41 82 1017.3
20260906132843 22 214 12.9 20.9 0.00 0.41 0.41 82 1017.2
20260906132736 22 192 12.9 20.9 0.00 0.41 0.41 81 1017.2
20260906132635 22 178 12.9 20.9 0.00 0.41 0.41 81 1017.2
20260906132529 22 179 12.9 20.9 0.00 0.41 0.41 81 1017.2
20260906132423 22 180 14.5 20.9 0.00 0.41 0.41 81 1017.3
20260906132340 22 169 14.5 20.9 0.00 0.41 0.41 81 1017.3
20260906132254 22 178 14.5 22.5 0.00 0.41 0.41 81 1017.2
20260906132150 22 186 14.5 22.5 0.00 0.41 0.41 81 1017.2
20260906132044 22 180 14.5 22.5 0.00 0.41 0.41 81 1017.1
20260906131957 22 182 14.5 22.5 0.00 0.41 0.41 81 1017.1
20260906131828 22 182 14.5 22.5 0.00 0.41 0.41 81 1017.1
20260906131725 22 188 12.9 22.5 0.00 0.41 0.41 81 1017.1
20260906131627 22 173 14.5 22.5 0.00 0.41 0.41 81 1017.0
20260906131521 22 180 16.1 22.5 0.00 0.41 0.41 81 1017.0
20260906131435 22 184 16.1 22.5 0.00 0.41 0.41 81 1017.0
20260906131349 22 188 14.5 22.5 0.00 0.41 0.41 81 1017.0
20260906131219 22 178 12.9 19.3 0.00 0.41 0.41 81 1017.0
20260906131112 22 178 12.9 20.9 0.00 0.41 0.41 81 1017.0
20260906131031 22 171 14.5 20.9 0.00 0.41 0.41 81 1017.0
20260906130931 22 177 14.5 20.9 0.00 0.41 0.41 81 1016.9
20260906130828 22 184 14.5 20.9 0.00 0.41 0.41 81 1017.0
20260906130725 22 184 14.5 24.1 0.00 0.41 0.41 81 1016.9
20260906130619 22 178 14.5 24.1 0.00 0.41 0.41 81 1016.9
20260906130514 22 184 16.1 25.7 0.00 0.41 0.41 81 1016.9
20260906130430 22 182 14.5 25.7 0.00 0.41 0.41 81 1016.9
20260906130327 22 182 14.5 25.7 0.03 0.41 0.41 80 1016.9
20260906130246 22 178 14.5 25.7 0.03 0.41 0.41 80 1016.9
20260906130139 22 189 16.1 25.7 0.05 0.41 0.41 80 1016.9
20260906130035 22 179 16.1 25.7 0.08 0.41 0.41 80 1016.9
20260906125932 22 186 17.7 25.7 0.08 0.41 0.41 80 1016.8
20260906125850 22 183 17.7 25.7 0.10 0.41 0.41 81 1016.9
20260906125725 22 186 20.9 25.7 0.13 0.41 0.41 81 1016.8
20260906125639 22 175 19.3 25.7 0.15 0.41 0.41 81 1016.8
20260906125557 22 170 19.3 25.7 0.15 0.41 0.41 81 1016.8
20260906125432 22 161 19.3 25.7 0.18 0.41 0.41 81 1016.8
20260906125325 22 184 19.3 25.7 0.18 0.41 0.41 81 1016.7
20260906125219 22 165 20.9 25.7 0.18 0.41 0.41 82 1016.7
20260906125133 22 180 20.9 27.4 0.20 0.41 0.41 82 1016.7
20260906125034 22 194 19.3 27.4 0.20 0.41 0.41 82 1016.7
20260906124926 22 197 17.7 27.4 0.20 0.41 0.41 82 1016.7
20260906124820 22 173 17.7 30.6 0.23 0.41 0.41 82 1016.7
20260906124733 22 179 17.7 30.6 0.23 0.41 0.41 82 1016.6
20260906124626 22 186 19.3 30.6 0.23 0.41 0.41 82 1016.6
20260906124541 22 173 20.9 30.6 0.23 0.41 0.41 82 1016.6
20260906124433 22 188 20.9 30.6 0.23 0.41 0.41 83 1016.6
20260906124325 22 190 22.5 30.6 0.23 0.41 0.41 83 1016.6
20260906124219 21 184 22.5 30.6 0.23 0.41 0.41 83 1016.6
20260906124117 21 172 22.5 32.2 0.23 0.41 0.41 83 1016.5
20260906124035 21 188 22.5 32.2 0.23 0.41 0.41 83 1016.5
20260906123928 21 184 22.5 32.2 0.23 0.41 0.41 83 1016.5
20260906123822 21 186 24.1 32.2 0.23 0.41 0.41 83 1016.4
20260906123720 21 197 25.7 32.2 0.23 0.41 0.41 83 1016.4
20260906123634 21 182 25.7 32.2 0.23 0.41 0.41 84 1016.4
20260906123529 21 186 27.4 32.2 0.23 0.41 0.41 84 1016.4
20260906123426 21 184 27.4 32.2 0.23 0.41 0.41 84 1016.3
20260906123343 21 187 27.4 32.2 0.23 0.41 0.41 84 1016.3
20260906123216 21 200 27.4 32.2 0.23 0.41 0.41 84 1016.3
20260906123131 21 189 25.7 32.2 0.23 0.41 0.41 84 1016.3
20260906123028 21 191 25.7 32.2 0.23 0.41 0.41 84 1016.3
20260906122944 21 195 25.7 32.2 0.23 0.41 0.41 84 1016.2
20260906122836 21 182 25.7 32.2 0.23 0.41 0.41 84 1016.2
20260906122753 21 198 27.4 32.2 0.23 0.41 0.41 84 1016.2
20260906122645 21 192 27.4 33.8 0.23 0.41 0.41 84 1016.2
20260906122538 21 183 27.4 37.0 0.23 0.41 0.41 84 1016.1
20260906122451 21 184 27.4 37.0 0.23 0.41 0.41 84 1016.1
20260906122327 21 196 29.0 37.0 0.23 0.41 0.41 84 1016.1
20260906122241 21 168 29.0 37.0 0.23 0.41 0.41 84 1016.1
20260906122137 21 187 27.4 41.8 0.23 0.41 0.41 84 1016.1
20260906122030 21 186 29.0 41.8 0.23 0.41 0.41 84 1016.0
20260906121951 21 179 29.0 41.8 0.23 0.41 0.41 84 1016.0
20260906121846 21 169 29.0 41.8 0.23 0.41 0.41 84 1016.1
20260906121738 21 180 30.6 43.5 0.23 0.41 0.41 84 1016.0
20260906121654 21 189 30.6 43.5 0.23 0.41 0.41 84 1015.9
20260906121529 21 200 30.6 48.3 0.23 0.41 0.41 84 1016.0
20260906121421 21 178 32.2 48.3 0.23 0.41 0.41 84 1015.9
20260906121318 21 181 32.2 48.3 0.23 0.41 0.41 84 1015.9
20260906121231 21 196 33.8 48.3 0.23 0.41 0.41 84 1015.8
20260906121125 21 186 33.8 48.3 0.23 0.41 0.41 84 1015.8
20260906121024 21 191 33.8 48.3 0.23 0.41 0.41 84 1015.7
20260906120920 21 193 35.4 48.3 0.23 0.41 0.41 84 1015.8
20260906120834 21 181 35.4 48.3 0.23 0.41 0.41 84 1015.7
20260906120748 21 193 37.0 48.3 0.23 0.41 0.41 84 1015.6
20260906120642 21 196 38.6 48.3 0.23 0.41 0.41 84 1015.6
20260906120536 21 190 38.6 48.3 0.23 0.41 0.41 85 1015.5
20260906120428 21 184 38.6 48.3 0.20 0.38 0.38 85 1015.4
20260906120325 21 174 38.6 45.1 0.20 0.38 0.38 85 1015.4
20260906120218 21 172 38.6 45.1 0.18 0.36 0.36 85 1015.5
20260906120130 21 194 38.6 45.1 0.18 0.36 0.36 85 1015.4
20260906120050 21 189 40.2 45.1 0.15 0.33 0.33 85 1015.4
20260906120006 21 195 38.6 45.1 0.15 0.33 0.33 85 1015.5
20260906115856 21 198 37.0 46.7 0.13 0.30 0.30 85 1015.5
20260906115749 21 188 35.4 45.1 0.10 0.28 0.28 85 1015.5
20260906115620 21 184 32.2 43.5 0.08 0.25 0.25 85 1015.6
20260906115534 21 196 27.4 38.6 0.08 0.25 0.25 84 1015.6
20260906115427 21 179 22.5 35.4 0.05 0.23 0.23 84 1015.8
20260906115328 21 191 19.3 35.4 0.05 0.23 0.23 84 1015.7
20260906115248 21 159 17.7 35.4 0.05 0.23 0.23 84 1015.7
20260906115140 21 177 16.1 29.0 0.03 0.20 0.20 83 1015.9
20260906115033 21 165 14.5 29.0 0.03 0.20 0.20 83 1015.9
20260906114926 21 179 16.1 29.0 0.03 0.20 0.20 83 1016.0
20260906114840 21 184 16.1 29.0 0.00 0.18 0.18 82 1016.0
20260906114732 21 173 17.7 29.0 0.00 0.18 0.18 82 1016.0
20260906114626 21 200 20.9 29.0 0.00 0.18 0.18 81 1016.0
20260906114525 21 191 22.5 29.0 0.00 0.18 0.18 81 1016.0
20260906114422 21 169 20.9 30.6 0.00 0.18 0.18 81 1016.0
20260906114319 22 193 19.3 30.6 0.00 0.18 0.18 80 1016.0
20260906114213 22 199 17.7 30.6 0.00 0.18 0.18 80 1016.0
20260906114130 22 167 17.7 35.4 0.00 0.18 0.18 80 1016.0
20260906114027 22 171 19.3 35.4 0.00 0.18 0.18 79 1016.0
20260906113921 22 185 20.9 35.4 0.00 0.18 0.18 79 1016.0
20260906113835 22 194 20.9 38.6 0.00 0.18 0.18 79 1016.0
20260906113732 22 188 20.9 38.6 0.00 0.18 0.18 79 1016.0
20260906113625 22 178 22.5 38.6 0.00 0.18 0.18 79 1015.9
20260906113520 22 192 20.9 38.6 0.00 0.18 0.18 78 1016.0
20260906113434 22 175 20.9 38.6 0.00 0.18 0.18 78 1016.0
20260906113329 22 178 22.5 38.6 0.00 0.18 0.18 78 1016.0
20260906113222 22 212 24.1 38.6 0.00 0.18 0.18 78 1016.0
20260906113138 22 184 25.7 38.6 0.00 0.18 0.18 79 1016.0
20260906113057 22 198 27.4 38.6 0.00 0.18 0.18 79 1015.9
20260906112950 22 175 29.0 38.6 0.00 0.18 0.18 79 1016.0
20260906112827 22 161 27.4 35.4 0.00 0.18 0.18 80 1015.9
20260906112720 22 175 27.4 35.4 0.00 0.18 0.18 80 1016.0
20260906112640 22 181 29.0 35.4 0.00 0.18 0.18 81 1016.0
20260906112537 22 161 27.4 35.4 0.00 0.18 0.18 81 1016.0
20260906112432 21 166 27.4 35.4 0.00 0.18 0.18 82 1016.0
20260906112346 21 186 27.4 37.0 0.00 0.18 0.18 82 1016.0
20260906112218 21 179 25.7 35.4 0.00 0.18 0.18 83 1016.0
20260906112132 21 169 25.7 35.4 0.00 0.18 0.18 83 1016.0
20260906112025 21 173 25.7 35.4 0.00 0.18 0.18 83 1016.0
20260906111924 21 169 24.1 32.2 0.00 0.18 0.18 83 1016.0
20260906111820 21 186 24.1 32.2 0.00 0.18 0.18 83 1016.0
20260906111734 21 175 22.5 30.6 0.00 0.18 0.18 83 1016.0
20260906111656 21 187 22.5 30.6 0.00 0.18 0.18 84 1016.0
20260906111613 21 165 24.1 30.6 0.00 0.18 0.18 84 1016.1
20260906111510 21 172 24.1 30.6 0.00 0.18 0.18 84 1016.1
20260906111403 21 163 22.5 30.6 0.00 0.18 0.18 84 1016.1
20260906111255 21 174 22.5 30.6 0.00 0.18 0.18 84 1016.1
20260906111128 21 182 22.5 30.6 0.00 0.18 0.18 84 1016.0
20260906111026 21 200 22.5 30.6 0.00 0.18 0.18 84 1016.1
20260906110939 21 175 24.1 30.6 0.00 0.18 0.18 84 1016.0
20260906110832 21 160 24.1 30.6 0.00 0.18 0.18 84 1016.1
20260906110746 21 173 24.1 30.6 0.00 0.18 0.18 84 1016.0
20260906110618 21 171 22.5 30.6 0.00 0.18 0.18 84 1016.1
20260906110515 21 177 22.5 30.6 0.00 0.18 0.18 84 1016.0
20260906110434 21 161 24.1 30.6 0.00 0.18 0.18 84 1016.1
20260906110327 21 185 24.1 30.6 0.00 0.18 0.18 84 1016.1
20260906110241 21 192 24.1 30.6 0.00 0.18 0.18 84 1016.0
20260906110134 21 184 22.5 29.0 0.00 0.18 0.18 84 1016.1
20260906110029 21 182 22.5 27.4 0.00 0.18 0.18 84 1016.0
20260906105942 21 190 22.5 30.6 0.00 0.18 0.18 84 1016.0
20260906105835 21 180 20.9 30.6 0.00 0.18 0.18 84 1016.0
20260906105729 21 188 20.9 30.6 0.00 0.18 0.18 84 1016.0
20260906105643 21 188 20.9 30.6 0.00 0.18 0.18 84 1016.0
20260906105521 21 180 22.5 30.6 0.00 0.18 0.18 84 1016.0
20260906105434 21 185 22.5 30.6 0.00 0.18 0.18 84 1016.0
20260906105328 21 171 22.5 30.6 0.00 0.18 0.18 84 1016.1
20260906105221 21 186 22.5 30.6 0.00 0.18 0.18 84 1016.1
20260906105118 21 184 20.9 30.6 0.00 0.18 0.18 84 1016.0
20260906105034 21 178 20.9 30.6 0.00 0.18 0.18 83 1016.0
20260906104927 21 175 20.9 30.6 0.00 0.18 0.18 83 1016.0
20260906104823 21 181 22.5 30.6 0.00 0.18 0.18 83 1015.9
20260906104725 21 188 22.5 30.6 0.00 0.18 0.18 83 1015.9
20260906104617 21 179 22.5 30.6 0.00 0.18 0.18 83 1015.9
20260906104531 21 171 22.5 30.6 0.00 0.18 0.18 83 1015.9
20260906104423 21 174 24.1 30.6 0.00 0.18 0.18 83 1015.9
20260906104319 21 192 24.1 30.6 0.00 0.18 0.18 83 1015.9
20260906104216 21 184 24.1 30.6 0.00 0.18 0.18 83 1015.9
20260906104132 21 185 22.5 29.0 0.00 0.18 0.18 83 1015.9
20260906104032 21 193 24.1 29.0 0.00 0.18 0.18 83 1016.0
20260906103927 21 187 24.1 27.4 0.00 0.18 0.18 83 1016.0
20260906103824 21 192 24.1 29.0 0.00 0.18 0.18 83 1016.0
20260906103717 21 188 22.5 27.4 0.00 0.18 0.18 83 1015.9
20260906103630 21 181 22.5 27.4 0.00 0.18 0.18 83 1016.0
20260906103528 21 190 22.5 27.4 0.00 0.18 0.18 83 1016.0
20260906103421 21 193 20.9 27.4 0.00 0.18 0.18 83 1016.0
20260906103338 21 184 20.9 27.4 0.00 0.18 0.18 83 1016.0
20260906103233 21 192 20.9 25.7 0.00 0.18 0.18 83 1016.0
20260906103127 21 188 20.9 27.4 0.00 0.18 0.18 83 1016.0
20260906103026 21 180 20.9 27.4 0.00 0.18 0.18 82 1016.0
20260906102925 21 187 19.3 27.4 0.00 0.18 0.18 82 1016.0
20260906102819 21 186 19.3 27.4 0.00 0.18 0.18 82 1016.0
20260906102733 21 178 19.3 27.4 0.00 0.18 0.18 82 1016.0
20260906102629 21 210 20.9 27.4 0.00 0.18 0.18 82 1016.0
20260906102548 21 180 20.9 27.4 0.00 0.18 0.18 82 1016.0
20260906102438 21 182 20.9 27.4 0.00 0.18 0.18 82 1016.1
20260906102352 21 178 19.3 27.4 0.00 0.18 0.18 82 1016.1
20260906102228 21 193 17.7 25.7 0.00 0.18 0.18 82 1016.1
20260906102126 21 186 17.7 25.7 0.00 0.18 0.18 82 1016.1
20260906102024 21 176 17.7 25.7 0.00 0.18 0.18 82 1016.1
20260906101923 21 168 17.7 27.4 0.00 0.18 0.18 82 1016.0
20260906101838 21 188 19.3 27.4 0.00 0.18 0.18 82 1016.1
20260906101733 21 178 19.3 27.4 0.00 0.18 0.18 82 1016.1
20260906101629 21 160 19.3 27.4 0.00 0.18 0.18 82 1016.1
20260906101531 21 168 19.3 27.4 0.00 0.18 0.18 82 1016.1
20260906101427 21 167 17.7 27.4 0.00 0.18 0.18 82 1016.1
20260906101319 21 166 17.7 27.4 0.00 0.18 0.18 82 1016.2
20260906101233 21 165 17.7 27.4 0.00 0.18 0.18 82 1016.1
20260906101147 21 171 19.3 29.0 0.00 0.18 0.18 82 1016.2
20260906101024 21 180 19.3 29.0 0.00 0.18 0.18 82 1016.2
20260906100917 21 164 19.3 32.2 0.00 0.18 0.18 82 1016.1
20260906100831 21 172 19.3 32.2 0.00 0.18 0.18 82 1016.1
20260906100745 21 190 17.7 35.4 0.00 0.18 0.18 82 1016.1
20260906100638 21 182 17.7 35.4 0.00 0.18 0.18 82 1016.1
20260906100555 21 169 19.3 35.4 0.00 0.18 0.18 82 1016.1
20260906100431 21 174 19.3 35.4 0.00 0.18 0.18 82 1016.1
20260906100326 21 172 19.3 35.4 0.00 0.18 0.18 82 1016.1
20260906100240 21 184 20.9 35.4 0.00 0.18 0.18 82 1016.1
20260906100132 21 175 22.5 35.4 0.00 0.18 0.18 82 1016.1
20260906100027 21 182 22.5 35.4 0.00 0.18 0.18 81 1016.1
20260906095923 21 195 24.1 35.4 0.00 0.18 0.18 81 1016.1
20260906095818 21 170 25.7 35.4 0.00 0.18 0.18 81 1016.0
20260906095731 21 165 27.4 35.4 0.00 0.18 0.18 81 1016.0
20260906095628 21 179 29.0 35.4 0.00 0.18 0.18 81 1016.0
20260906095528 21 201 29.0 35.4 0.00 0.18 0.18 81 1016.0
20260906095421 21 190 27.4 35.4 0.00 0.18 0.18 81 1016.0
20260906095318 21 186 27.4 35.4 0.00 0.18 0.18 81 1016.0
20260906095232 21 199 25.7 35.4 0.00 0.18 0.18 81 1016.0
20260906095146 21 201 25.7 35.4 0.00 0.18 0.18 81 1016.0
20260906095027 21 190 25.7 35.4 0.00 0.18 0.18 81 1015.9
20260906094920 21 190 25.7 35.4 0.03 0.18 0.18 81 1016.0
20260906094820 21 185 27.4 35.4 0.03 0.18 0.18 81 1016.0
20260906094735 21 194 27.4 35.4 0.05 0.18 0.18 81 1016.0
20260906094648 21 192 27.4 35.4 0.08 0.18 0.18 81 1015.9
20260906094525 21 186 27.4 35.4 0.10 0.18 0.18 81 1015.9
20260906094418 21 201 25.7 35.4 0.10 0.18 0.18 81 1015.8
20260906094332 21 198 25.7 35.4 0.13 0.18 0.18 81 1015.9
20260906094224 21 192 25.7 33.8 0.13 0.18 0.18 81 1015.9
20260906094120 21 184 25.7 38.6 0.13 0.18 0.18 82 1015.9
20260906094036 21 189 25.7 38.6 0.13 0.18 0.18 82 1015.9
20260906093951 21 186 27.4 38.6 0.13 0.18 0.18 82 1015.8
20260906093828 21 179 27.4 38.6 0.13 0.18 0.18 82 1015.8
20260906093725 21 167 27.4 38.6 0.13 0.18 0.18 82 1015.7
20260906093639 21 188 27.4 38.6 0.13 0.18 0.18 82 1015.7
20260906093535 21 182 29.0 38.6 0.13 0.18 0.18 82 1015.7
20260906093428 21 160 29.0 38.6 0.13 0.18 0.18 82 1015.7
20260906093321 21 182 29.0 38.6 0.15 0.18 0.18 82 1015.8
20260906093235 21 186 27.4 38.6 0.15 0.18 0.18 82 1015.8
20260906093129 21 196 27.4 41.8 0.15 0.18 0.18 82 1015.8
20260906093026 21 184 25.7 41.8 0.15 0.18 0.18 81 1015.7
20260906092920 21 188 29.0 41.8 0.18 0.18 0.18 81 1015.7
20260906092833 21 185 29.0 41.8 0.18 0.18 0.18 81 1015.7
20260906092727 21 198 30.6 41.8 0.18 0.18 0.18 81 1015.7
20260906092641 21 182 32.2 41.8 0.18 0.18 0.18 81 1015.7
20260906092538 21 197 30.6 41.8 0.18 0.18 0.18 81 1015.7
20260906092453 22 191 32.2 41.8 0.18 0.18 0.18 81 1015.6
20260906092324 22 186 33.8 41.8 0.18 0.18 0.18 81 1015.7
20260906092217 22 180 32.2 41.8 0.18 0.18 0.18 81 1015.6
20260906092133 22 197 30.6 40.2 0.18 0.18 0.18 81 1015.7
20260906092033 22 190 30.6 40.2 0.18 0.18 0.18 81 1015.8
20260906091925 22 192 30.6 40.2 0.18 0.18 0.18 81 1015.8
20260906091839 22 201 30.6 40.2 0.18 0.18 0.18 81 1015.8
20260906091753 22 172 32.2 40.2 0.18 0.18 0.18 81 1015.8
20260906091630 22 186 32.2 43.5 0.18 0.18 0.18 81 1015.8
20260906091528 22 194 30.6 45.1 0.18 0.18 0.18 81 1015.9
20260906091421 22 176 29.0 45.1 0.18 0.18 0.18 81 1015.8
20260906091316 22 189 30.6 45.1 0.18 0.18 0.18 81 1015.8
20260906091233 22 181 32.2 45.1 0.18 0.18 0.18 81 1015.8
20260906091130 22 186 32.2 45.1 0.18 0.18 0.18 81 1015.9
20260906091026 22 190 32.2 45.1 0.18 0.18 0.18 81 1015.9
20260906090922 22 177 33.8 45.1 0.18 0.18 0.18 80 1016.0
20260906090836 22 176 33.8 48.3 0.18 0.18 0.18 80 1015.9
20260906090728 22 184 35.4 48.3 0.18 0.18 0.18 80 1015.9
20260906090622 22 199 35.4 48.3 0.18 0.18 0.18 80 1015.9
20260906090520 22 186 35.4 48.3 0.18 0.18 0.18 80 1015.9
20260906090432 22 192 35.4 48.3 0.18 0.18 0.18 80 1015.8
20260906090331 22 161 33.8 48.3 0.18 0.18 0.18 80 1015.9
20260906090228 22 180 33.8 48.3 0.18 0.18 0.18 80 1015.8
20260906090124 22 183 33.8 48.3 0.18 0.18 0.18 80 1015.8
20260906090019 22 173 35.4 48.3 0.18 0.18 0.18 80 1015.9
20260906085932 22 184 37.0 48.3 0.18 0.18 0.18 80 1015.8
20260906085825 22 194 37.0 48.3 0.18 0.18 0.18 80 1015.8
20260906085719 22 188 35.4 43.5 0.18 0.18 0.18 80 1015.8
20260906085620 22 180 33.8 43.5 0.18 0.18 0.18 80 1015.7
20260906085535 22 179 35.4 43.5 0.18 0.18 0.18 80 1015.8
20260906085427 22 188 35.4 43.5 0.18 0.18 0.18 80 1015.8
20260906085320 22 179 33.8 46.7 0.18 0.18 0.18 80 1015.8
20260906085234 22 184 32.2 46.7 0.18 0.18 0.18 80 1015.8
20260906085130 22 171 30.6 45.1 0.18 0.18 0.18 80 1015.9
20260906085024 22 176 32.2 45.1 0.18 0.18 0.18 80 1015.9
20260906084937 22 172 32.2 45.1 0.15 0.15 0.15 80 1015.9
20260906084830 22 157 33.8 45.1 0.15 0.15 0.15 80 1015.9
20260906084722 22 167 35.4 45.1 0.13 0.13 0.13 79 1015.9
20260906084620 22 175 33.8 45.1 0.10 0.10 0.10 79 1015.8
20260906084538 22 168 33.8 45.1 0.08 0.08 0.08 79 1015.8
20260906084432 22 188 30.6 45.1 0.05 0.05 0.05 79 1015.8
20260906084326 22 175 27.4 35.4 0.05 0.05 0.05 79 1015.8
20260906084240 22 177 25.7 35.4 0.05 0.05 0.05 79 1015.9
20260906084132 22 165 24.1 35.4 0.05 0.05 0.05 79 1016.0
20260906084029 22 169 20.9 35.4 0.05 0.05 0.05 79 1016.0
20260906083944 22 170 19.3 35.4 0.05 0.05 0.05 79 1016.1
20260906083836 22 165 20.9 35.4 0.05 0.05 0.05 78 1016.0
20260906083728 22 124 22.5 35.4 0.05 0.05 0.05 78 1016.1
20260906083645 22 157 22.5 35.4 0.05 0.05 0.05 78 1016.1
20260906083603 22 159 22.5 35.4 0.05 0.05 0.05 78 1016.1
20260906083456 22 167 25.7 35.4 0.03 0.03 0.03 78 1016.0
20260906083329 22 171 25.7 35.4 0.03 0.03 0.03 78 1016.0
20260906083225 22 162 24.1 35.4 0.03 0.03 0.03 78 1016.0
20260906083139 22 174 24.1 35.4 0.03 0.03 0.03 78 1016.0
20260906083035 22 159 25.7 35.4 0.03 0.03 0.03 77 1016.0
20260906082948 22 160 25.7 35.4 0.00 0.00 0.00 77 1016.0
20260906082819 22 158 24.1 35.4 0.00 0.00 0.00 77 1016.1
20260906082732 22 159 22.5 35.4 0.00 0.00 0.00 77 1016.0
20260906082646 22 161 24.1 35.4 0.00 0.00 0.00 77 1016.1
20260906082544 22 175 25.7 35.4 0.00 0.00 0.00 77 1016.0
20260906082423 22 152 27.4 35.4 0.00 0.00 0.00 76 1016.0
20260906082337 22 161 27.4 35.4 0.00 0.00 0.00 76 1016.0
20260906082229 22 165 25.7 35.4 0.00 0.00 0.00 76 1015.9
20260906082142 22 182 24.1 35.4 0.00 0.00 0.00 76 1015.9
20260906082056 22 164 22.5 33.8 0.00 0.00 0.00 76 1016.0
20260906081926 22 166 22.5 32.2 0.00 0.00 0.00 76 1016.0
20260906081841 22 167 22.5 32.2 0.00 0.00 0.00 75 1016.0
20260906081737 22 168 22.5 35.4 0.00 0.00 0.00 75 1016.0
20260906081632 23 169 22.5 35.4 0.00 0.00 0.00 75 1016.1
20260906081534 23 179 24.1 35.4 0.00 0.00 0.00 75 1016.1
20260906081431 23 173 24.1 48.3 0.00 0.00 0.00 75 1016.1
20260906081344 23 180 24.1 48.3 0.00 0.00 0.00 74 1016.1
20260906081217 23 166 24.1 48.3 0.00 0.00 0.00 74 1016.1
20260906081131 23 169 25.7 48.3 0.00 0.00 0.00 74 1016.1
20260906081027 23 142 25.7 48.3 0.00 0.00 0.00 73 1016.0
20260906080918 23 162 25.7 48.3 0.00 0.00 0.00 73 1016.1
20260906080832 23 148 25.7 48.3 0.00 0.00 0.00 73 1016.1
20260906080726 23 170 27.4 48.3 0.00 0.00 0.00 73 1016.1
20260906080621 23 173 32.2 48.3 0.00 0.00 0.00 73 1016.1
20260906080526 23 165 33.8 48.3 0.00 0.00 0.00 73 1016.0
20260906080418 23 184 32.2 46.7 0.00 0.00 0.00 73 1016.0
20260906080335 23 169 35.4 46.7 0.00 0.00 0.00 72 1016.0
20260906080229 23 161 37.0 46.7 0.00 0.00 0.00 72 1016.0
20260906080126 23 176 35.4 46.7 0.00 0.00 0.00 72 1015.9
20260906080044 23 166 33.8 46.7 0.00 0.00 0.00 72 1015.8
20260906075922 23 182 29.0 46.7 0.00 0.00 0.00 72 1015.9
20260906075816 23 167 25.7 46.7 0.00 0.00 0.00 72 1016.0
20260906075717 23 155 24.1 46.7 0.00 0.00 0.00 72 1016.0
20260906075634 23 159 27.4 46.7 0.00 0.00 0.00 71 1016.1
20260906075529 23 174 30.6 46.7 0.00 0.00 0.00 71 1016.1
20260906075428 23 170 30.6 46.7 0.00 0.00 0.00 71 1016.1
20260906075322 23 194 30.6 46.7 0.00 0.00 0.00 71 1016.1
20260906075218 23 170 32.2 46.7 0.00 0.00 0.00 70 1016.0
20260906075131 23 178 32.2 46.7 0.00 0.00 0.00 70 1016.0
20260906075029 23 175 30.6 46.7 0.00 0.00 0.00 70 1016.1
20260906074925 24 176 33.8 48.3 0.00 0.00 0.00 69 1016.0
20260906074824 24 173 37.0 48.3 0.00 0.00 0.00 69 1016.0
20260906074717 24 182 35.4 48.3 0.00 0.00 0.00 69 1016.0
20260906074631 24 175 32.2 48.3 0.00 0.00 0.00 69 1015.9
20260906074525 24 174 27.4 48.3 0.00 0.00 0.00 69 1016.0
20260906074418 24 143 30.6 49.9 0.00 0.00 0.00 69 1016.1
20260906074333 24 189 32.2 49.9 0.00 0.00 0.00 69 1016.1
20260906074227 24 190 33.8 49.9 0.00 0.00 0.00 68 1016.1
20260906074122 24 179 35.4 49.9 0.00 0.00 0.00 68 1016.0
20260906074019 24 183 35.4 49.9 0.00 0.00 0.00 68 1016.2
20260906073937 24 196 35.4 49.9 0.00 0.00 0.00 68 1016.1
20260906073833 24 175 33.8 49.9 0.00 0.00 0.00 69 1016.1
20260906073727 24 171 30.6 49.9 0.00 0.00 0.00 69 1015.9
20260906073624 23 184 33.8 49.9 0.00 0.00 0.00 69 1016.1
20260906073522 23 162 37.0 49.9 0.00 0.00 0.00 70 1016.0
20260906073435 23 165 37.0 51.5 0.00 0.00 0.00 71 1015.9
20260906073328 23 189 33.8 49.9 0.00 0.00 0.00 72 1016.0
20260906073223 23 198 32.2 49.9 0.00 0.00 0.00 72 1016.1
20260906073120 23 183 35.4 49.9 0.00 0.00 0.00 72 1016.1
20260906073035 23 190 37.0 49.9 0.00 0.00 0.00 71 1016.0
20260906072948 23 185 38.6 49.9 0.00 0.00 0.00 71 1016.1
20260906072841 23 196 38.6 54.7 0.00 0.00 0.00 70 1016.0
20260906072733 23 175 38.6 54.7 0.00 0.00 0.00 70 1016.1
20260906072627 24 194 37.0 54.7 0.00 0.00 0.00 70 1016.1
20260906072523 24 210 37.0 54.7 0.00 0.00 0.00 69 1016.2
20260906072416 24 184 38.6 54.7 0.00 0.00 0.00 69 1016.1
20260906072330 24 200 41.8 54.7 0.00 0.00 0.00 69 1016.2
20260906072248 24 183 40.2 54.7 0.00 0.00 0.00 70 1016.2
20260906072205 23 181 40.2 54.7 0.00 0.00 0.00 70 1016.1
20260906072120 23 188 38.6 54.7 0.00 0.00 0.00 70 1016.1
20260906072014 23 202 40.2 54.7 0.00 0.00 0.00 70 1016.1
20260906071906 23 175 38.6 54.7 0.00 0.00 0.00 70 1016.1
20260906071758 23 190 37.0 54.7 0.00 0.00 0.00 71 1016.2
20260906071629 23 190 35.4 54.7 0.00 0.00 0.00 71 1016.2
20260906071527 23 178 33.8 54.7 0.00 0.00 0.00 71 1016.3
20260906071420 23 181 32.2 54.7 0.00 0.00 0.00 71 1016.2
20260906071334 23 183 32.2 54.7 0.00 0.00 0.00 70 1016.2
20260906071226 23 186 33.8 54.7 0.00 0.00 0.00 70 1016.3
20260906071118 24 184 35.4 54.7 0.00 0.00 0.00 70 1016.2
20260906071038 23 190 37.0 54.7 0.00 0.00 0.00 69 1016.3
20260906070930 23 182 38.6 54.7 0.00 0.00 0.00 70 1016.3
20260906070827 23 190 33.8 51.5 0.00 0.00 0.00 70 1016.4
20260906070724 23 197 32.2 51.5 0.00 0.00 0.00 70 1016.3
20260906070617 23 192 35.4 51.5 0.00 0.00 0.00 70 1016.3
20260906070515 23 174 37.0 51.5 0.00 0.00 0.00 69 1016.3
20260906070431 23 179 35.4 51.5 0.00 0.00 0.00 70 1016.3
20260906070327 24 190 33.8 51.5 0.00 0.00 0.00 69 1016.3
20260906070225 24 188 35.4 51.5 0.00 0.00 0.00 69 1016.4
20260906070122 23 182 37.0 51.5 0.00 0.00 0.00 70 1016.3
20260906070036 23 170 37.0 51.5 0.00 0.00 0.00 70 1016.3
20260906065929 23 190 38.6 54.7 0.00 0.00 0.00 70 1016.4
20260906065828 23 181 37.0 54.7 0.00 0.00 0.00 71 1016.5
20260906065725 23 169 38.6 54.7 0.00 0.00 0.00 70 1016.4
20260906065621 23 196 37.0 53.1 0.00 0.00 0.00 70 1016.5
20260906065541 23 181 33.8 51.5 0.00 0.00 0.00 70 1016.4
20260906065454 23 183 33.8 51.5 0.00 0.00 0.00 70 1016.3
20260906065327 23 192 35.4 51.5 0.00 0.00 0.00 70 1016.4
20260906065221 23 192 33.8 49.9 0.00 0.00 0.00 69 1016.4
20260906065115 23 184 35.4 49.9 0.00 0.00 0.00 69 1016.4
20260906065013 23 185 35.4 48.3 0.00 0.00 0.00 70 1016.5
20260906064933 23 192 35.4 48.3 0.00 0.00 0.00 70 1016.4
20260906064826 23 190 37.0 48.3 0.00 0.00 0.00 70 1016.4
20260906064726 23 182 35.4 48.3 0.00 0.00 0.00 70 1016.4
20260906064620 23 208 33.8 43.5 0.00 0.00 0.00 70 1016.4
20260906064533 23 186 33.8 43.5 0.00 0.00 0.00 70 1016.4
20260906064427 23 173 33.8 43.5 0.00 0.00 0.00 70 1016.4
20260906064322 23 171 32.2 43.5 0.00 0.00 0.00 70 1016.4
20260906064235 23 198 32.2 41.8 0.00 0.00 0.00 70 1016.4
20260906064149 23 192 32.2 41.8 0.00 0.00 0.00 69 1016.4
20260906064026 23 187 32.2 41.8 0.00 0.00 0.00 69 1016.4
20260906063922 23 186 30.6 41.8 0.00 0.00 0.00 68 1016.4
20260906063835 23 192 30.6 41.8 0.00 0.00 0.00 68 1016.4
20260906063727 24 188 32.2 41.8 0.00 0.00 0.00 67 1016.4
20260906063621 24 188 33.8 49.9 0.00 0.00 0.00 66 1016.4
20260906063535 24 175 33.8 49.9 0.00 0.00 0.00 66 1016.4
20260906063450 24 197 32.2 49.9 0.00 0.00 0.00 65 1016.4
20260906063323 24 173 30.6 49.9 0.00 0.00 0.00 65 1016.4
20260906063217 24 172 32.2 49.9 0.00 0.00 0.00 64 1016.4
20260906063131 25 185 32.2 49.9 0.00 0.00 0.00 64 1016.3
20260906063028 25 179 33.8 49.9 0.00 0.00 0.00 63 1016.3
20260906062925 25 171 35.4 49.9 0.00 0.00 0.00 63 1016.3
20260906062823 25 186 35.4 49.9 0.00 0.00 0.00 63 1016.3
20260906062722 25 171 35.4 45.1 0.00 0.00 0.00 62 1016.3
20260906062636 25 159 33.8 45.1 0.00 0.00 0.00 62 1016.4
20260906062530 25 194 33.8 45.1 0.00 0.00 0.00 62 1016.3
20260906062446 25 183 32.2 45.1 0.00 0.00 0.00 61 1016.4
20260906062319 25 204 33.8 45.1 0.00 0.00 0.00 61 1016.5
20260906062233 25 182 32.2 45.1 0.00 0.00 0.00 61 1016.5
20260906062146 25 184 30.6 45.1 0.00 0.00 0.00 61 1016.5
20260906062019 25 178 30.6 48.3 0.00 0.00 0.00 60 1016.4
20260906061935 25 188 32.2 48.3 0.00 0.00 0.00 60 1016.4
20260906061828 25 188 32.2 48.3 0.00 0.00 0.00 60 1016.4
20260906061721 25 182 32.2 48.3 0.00 0.00 0.00 60 1016.3
20260906061618 25 190 33.8 48.3 0.00 0.00 0.00 60 1016.3
20260906061516 25 181 33.8 48.3 0.00 0.00 0.00 60 1016.4
20260906061432 25 193 35.4 48.3 0.00 0.00 0.00 59 1016.3
20260906061329 25 200 33.8 48.3 0.00 0.00 0.00 59 1016.3
20260906061227 25 188 33.8 48.3 0.00 0.00 0.00 60 1016.2
20260906061120 24 184 35.4 48.3 0.00 0.00 0.00 61 1016.2
20260906061039 24 175 33.8 48.3 0.00 0.00 0.00 62 1016.2
20260906060952 24 186 32.2 46.7 0.00 0.00 0.00 63 1016.2
20260906060824 24 180 32.2 46.7 0.00 0.00 0.00 64 1016.1
20260906060738 24 178 33.8 46.7 0.00 0.00 0.00 65 1016.1
20260906060634 24 184 33.8 46.7 0.00 0.00 0.00 66 1016.1
20260906060529 24 165 32.2 46.7 0.00 0.00 0.00 66 1016.2
20260906060444 23 189 33.8 51.5 0.00 0.00 0.00 67 1016.1
20260906060324 23 160 33.8 51.5 0.00 0.00 0.00 67 1016.1
20260906060244 23 167 33.8 51.5 0.00 0.00 0.00 67 1016.1
20260906060137 23 170 33.8 51.5 0.00 0.00 0.00 67 1016.1
20260906060034 23 178 32.2 51.5 0.00 0.00 0.00 67 1016.2
20260906055939 24 183 32.2 51.5 0.00 0.00 0.00 66 1016.1
20260906055832 24 171 35.4 51.5 0.00 0.00 0.00 66 1016.1
20260906055748 24 175 35.4 51.5 0.00 0.00 0.00 66 1016.1
20260906055624 24 163 37.0 53.1 0.00 0.00 0.00 66 1016.1
20260906055519 24 172 37.0 53.1 0.00 0.00 0.00 65 1016.0
20260906055432 23 144 38.6 53.1 0.00 0.00 0.00 65 1016.0
20260906055329 23 150 38.6 53.1 0.00 0.00 0.00 65 1016.0
20260906055227 23 164 38.6 53.1 0.00 0.00 0.00 65 1016.0
20260906055120 23 163 38.6 53.1 0.00 0.00 0.00 65 1016.0
20260906055018 23 175 38.6 53.1 0.00 0.00 0.00 65 1016.1
20260906054934 23 159 37.0 53.1 0.00 0.00 0.00 65 1016.1
20260906054828 24 165 37.0 53.1 0.00 0.00 0.00 66 1016.1
20260906054725 24 169 38.6 53.1 0.00 0.00 0.00 67 1016.1
20260906054619 24 167 37.0 49.9 0.00 0.00 0.00 67 1016.2
20260906054538 24 171 35.4 49.9 0.00 0.00 0.00 67 1016.2
20260906054432 24 171 35.4 49.9 0.00 0.00 0.00 67 1016.1
20260906054326 24 177 35.4 49.9 0.00 0.00 0.00 67 1016.1
20260906054247 24 182 37.0 49.9 0.00 0.00 0.00 67 1016.1
20260906054140 24 173 37.0 49.9 0.00 0.00 0.00 66 1016.1
20260906054036 24 175 38.6 49.9 0.00 0.00 0.00 65 1016.1
20260906053929 23 172 38.6 51.5 0.00 0.00 0.00 64 1016.1
20260906053825 23 172 35.4 51.5 0.00 0.00 0.00 63 1016.1
20260906053719 23 184 35.4 51.5 0.00 0.00 0.00 62 1016.1
20260906053636 23 173 35.4 51.5 0.00 0.00 0.00 62 1016.0
20260906053518 23 169 35.4 51.5 0.00 0.00 0.00 62 1016.0
20260906053431 23 175 35.4 51.5 0.00 0.00 0.00 62 1016.0
20260906053323 23 195 33.8 51.5 0.00 0.00 0.00 62 1016.0
20260906053237 23 177 35.4 51.5 0.00 0.00 0.00 62 1016.0
20260906053131 23 184 35.4 51.5 0.00 0.00 0.00 63 1016.0
20260906053029 22 180 38.6 49.9 0.00 0.00 0.00 64 1016.0
20260906052920 22 175 37.0 51.5 0.00 0.00 0.00 65 1016.0
20260906052817 22 184 35.4 51.5 0.00 0.00 0.00 65 1016.0
20260906052731 22 186 35.4 51.5 0.00 0.00 0.00 66 1016.1
20260906052645 22 184 33.8 51.5 0.00 0.00 0.00 66 1016.1
20260906052542 22 178 33.8 51.5 0.00 0.00 0.00 66 1016.0
20260906052434 22 167 35.4 51.5 0.00 0.00 0.00 66 1016.0
20260906052328 22 141 35.4 51.5 0.00 0.00 0.00 65 1016.0
20260906052222 22 188 35.4 51.5 0.00 0.00 0.00 64 1016.0
20260906052135 22 168 37.0 51.5 0.00 0.00 0.00 63 1016.0
20260906052030 23 188 37.0 51.5 0.00 0.00 0.00 63 1016.1
20260906051925 23 187 37.0 53.1 0.00 0.00 0.00 62 1015.9
20260906051824 23 196 37.0 51.5 0.00 0.00 0.00 62 1015.9
20260906051717 23 186 35.4 51.5 0.00 0.00 0.00 62 1015.9
20260906051634 23 170 37.0 51.5 0.00 0.00 0.00 62 1015.9
20260906051549 23 173 35.4 51.5 0.00 0.00 0.00 62 1015.9
20260906051421 23 200 32.2 46.7 0.00 0.00 0.00 61 1016.0
20260906051335 23 178 30.6 46.7 0.00 0.00 0.00 61 1016.0
20260906051229 23 171 32.2 46.7 0.00 0.00 0.00 61 1015.8
20260906051122 23 158 37.0 46.7 0.00 0.00 0.00 61 1015.8
20260906051037 23 178 35.4 46.7 0.00 0.00 0.00 61 1015.8
20260906050929 23 175 32.2 46.7 0.00 0.00 0.00 61 1015.9
20260906050823 23 171 30.6 45.1 0.00 0.00 0.00 61 1015.7
20260906050721 23 158 27.4 45.1 0.00 0.00 0.00 62 1015.6
20260906050635 23 167 30.6 45.1 0.00 0.00 0.00 62 1015.6
20260906050533 23 161 30.6 45.1 0.00 0.00 0.00 62 1015.7
20260906050432 23 167 30.6 45.1 0.00 0.00 0.00 62 1015.7
20260906050326 23 170 32.2 45.1 0.00 0.00 0.00 62 1015.8
20260906050218 23 179 30.6 45.1 0.00 0.00 0.00 61 1015.8
20260906050132 23 202 25.7 35.4 0.00 0.00 0.00 61 1015.5
20260906050026 23 150 24.1 35.4 0.00 0.00 0.00 62 1015.4
20260906045919 23 182 24.1 35.4 0.00 0.00 0.00 62 1015.3
20260906045816 23 169 25.7 41.8 0.00 0.00 0.00 62 1015.3
20260906045729 23 170 25.7 41.8 0.00 0.00 0.00 62 1015.3
20260906045621 23 181 25.7 41.8 0.00 0.00 0.00 62 1015.3
20260906045536 23 171 25.7 41.8 0.00 0.00 0.00 62 1015.3
20260906045449 23 196 29.0 41.8 0.00 0.00 0.00 62 1015.3
20260906045325 23 171 27.4 41.8 0.00 0.00 0.00 62 1015.3
20260906045239 23 176 25.7 41.8 0.00 0.00 0.00 62 1015.4
20260906045153 23 175 22.5 41.8 0.00 0.00 0.00 62 1015.4
20260906045027 23 199 24.1 41.8 0.00 0.00 0.00 62 1015.4
20260906044920 23 173 27.4 41.8 0.00 0.00 0.00 62 1015.4
20260906044818 23 169 30.6 41.8 0.00 0.00 0.00 62 1015.4
20260906044733 23 165 29.0 40.2 0.00 0.00 0.00 63 1015.3
20260906044650 23 170 29.0 40.2 0.00 0.00 0.00 63 1015.3
20260906044605 23 182 29.0 40.2 0.00 0.00 0.00 63 1015.3
20260906044500 23 163 29.0 41.8 0.00 0.00 0.00 63 1015.2
20260906044332 23 180 29.0 41.8 0.00 0.00 0.00 63 1015.2
20260906044224 23 163 32.2 48.3 0.00 0.00 0.00 63 1015.3
20260906044138 23 173 30.6 48.3 0.00 0.00 0.00 64 1015.2
20260906044032 22 176 30.6 53.1 0.00 0.00 0.00 65 1015.2
20260906043926 22 178 30.6 53.1 0.00 0.00 0.00 65 1015.2
20260906043840 22 150 30.6 54.7 0.00 0.00 0.00 65 1015.3
20260906043717 23 198 32.2 54.7 0.00 0.00 0.00 65 1015.4
20260906043631 22 181 32.2 54.7 0.00 0.00 0.00 65 1015.3
20260906043527 22 161 33.8 54.7 0.00 0.00 0.00 65 1015.3
20260906043420 22 184 35.4 54.7 0.00 0.00 0.00 66 1015.4
20260906043334 22 181 35.4 54.7 0.00 0.00 0.00 66 1015.4
20260906043228 22 171 37.0 54.7 0.00 0.00 0.00 67 1015.4
20260906043122 22 170 38.6 54.7 0.00 0.00 0.00 68 1015.5
20260906043038 22 184 40.2 54.7 0.00 0.00 0.00 68 1015.6
20260906042929 22 180 38.6 56.3 0.00 0.00 0.00 69 1015.7
20260906042825 22 154 38.6 64.4 0.00 0.00 0.00 70 1015.7
20260906042717 21 184 37.0 64.4 0.00 0.00 0.00 70 1015.8
20260906042630 21 196 37.0 64.4 0.00 0.00 0.00 70 1015.9
20260906042528 21 206 37.0 64.4 0.00 0.00 0.00 70 1015.9
20260906042424 21 188 40.2 64.4 0.00 0.00 0.00 71 1015.9
20260906042338 21 179 41.8 64.4 0.00 0.00 0.00 71 1015.9
20260906042233 21 177 43.5 64.4 0.00 0.00 0.00 72 1016.0
20260906042126 21 189 46.7 64.4 0.00 0.00 0.00 74 1016.0
20260906042042 21 176 46.7 64.4 0.00 0.00 0.00 75 1016.2
20260906041924 21 188 48.3 64.4 0.00 0.00 0.00 75 1016.1
20260906041838 21 171 45.1 62.8 0.00 0.00 0.00 75 1016.1
20260906041751 21 187 46.7 62.8 0.00 0.00 0.00 75 1016.0
20260906041627 21 181 46.7 62.8 0.00 0.00 0.00 75 1016.0
20260906041521 21 174 46.7 62.8 0.00 0.00 0.00 75 1016.0
20260906041434 21 185 46.7 61.2 0.00 0.00 0.00 75 1016.0
20260906041355 21 176 45.1 62.8 0.00 0.00 0.00 75 1016.0
20260906041314 21 184 41.8 62.8 0.00 0.00 0.00 75 1015.9
20260906041150 21 174 40.2 62.8 0.00 0.00 0.00 75 1015.9
20260906041105 21 157 41.8 62.8 0.00 0.00 0.00 75 1016.0
20260906040957 21 174 40.2 62.8 0.00 0.00 0.00 75 1015.9
20260906040854 21 179 40.2 62.8 0.00 0.00 0.00 75 1016.0
20260906040751 21 179 43.5 62.8 0.00 0.00 0.00 76 1016.0
20260906040624 21 175 46.7 62.8 0.00 0.00 0.00 76 1016.0
20260906040520 21 196 51.5 62.8 0.00 0.00 0.00 76 1016.0
20260906040416 21 205 53.1 67.6 0.00 0.00 0.00 76 1016.0
20260906040330 22 175 49.9 67.6 0.00 0.00 0.00 76 1016.0
20260906040243 22 177 48.3 66.0 0.00 0.00 0.00 76 1016.0
20260906040136 22 191 48.3 66.0 0.00 0.00 0.00 75 1016.0
20260906040051 22 179 46.7 57.9 0.00 0.00 0.00 75 1016.1
20260906035923 22 180 43.5 57.9 0.00 0.00 0.00 74 1016.2
20260906035838 22 193 38.6 57.9 0.00 0.00 0.00 74 1016.1
20260906035734 22 157 33.8 57.9 0.00 0.00 0.00 73 1016.0
20260906035648 22 167 37.0 57.9 0.00 0.00 0.00 72 1016.0
20260906035525 22 188 41.8 57.9 0.00 0.00 0.00 71 1016.0
20260906035439 22 173 41.8 57.9 0.00 0.00 0.00 71 1016.2
20260906035353 22 177 38.6 57.9 0.00 0.00 0.00 70 1015.9
20260906035229 22 168 37.0 46.7 0.00 0.00 0.00 70 1015.8
20260906035123 23 159 33.8 48.3 0.00 0.00 0.00 70 1015.8
20260906035021 23 181 32.2 48.3 0.00 0.00 0.00 70 1015.8
20260906034924 22 173 35.4 48.3 0.00 0.00 0.00 70 1015.8
20260906034817 22 171 37.0 48.3 0.00 0.00 0.00 71 1015.7
20260906034734 22 172 35.4 48.3 0.00 0.00 0.00 72 1015.6
20260906034628 22 163 37.0 48.3 0.00 0.00 0.00 72 1015.7
20260906034523 22 178 35.4 48.3 0.00 0.00 0.00 73 1015.8
20260906034418 22 176 37.0 48.3 0.00 0.00 0.00 73 1015.8
20260906034332 22 174 37.0 48.3 0.00 0.00 0.00 74 1015.8
20260906034225 22 176 40.2 48.3 0.00 0.00 0.00 73 1015.9
20260906034117 22 183 37.0 48.3 0.00 0.00 0.00 73 1016.0
20260906034035 22 178 35.4 46.7 0.00 0.00 0.00 73 1016.0
20260906033927 22 183 32.2 46.7 0.00 0.00 0.00 73 1016.1
20260906033824 22 172 32.2 46.7 0.00 0.00 0.00 72 1016.3
20260906033718 23 192 32.2 46.7 0.00 0.00 0.00 72 1016.4
20260906033631 23 187 30.6 46.7 0.00 0.00 0.00 72 1016.4
20260906033527 23 185 32.2 46.7 0.00 0.00 0.00 72 1016.5
20260906033440 23 194 32.2 48.3 0.00 0.00 0.00 71 1016.6
20260906033333 23 195 33.8 48.3 0.00 0.00 0.00 71 1016.6
20260906033247 23 205 35.4 48.3 0.00 0.00 0.00 71 1016.7
20260906033128 23 185 37.0 48.3 0.00 0.00 0.00 71 1016.7
20260906033023 23 212 37.0 48.3 0.00 0.00 0.00 71 1016.7
20260906032921 23 203 37.0 48.3 0.00 0.00 0.00 70 1016.7
20260906032816 23 202 37.0 48.3 0.00 0.00 0.00 70 1016.8
20260906032733 23 217 37.0 48.3 0.00 0.00 0.00 70 1016.7
20260906032625 23 212 38.6 48.3 0.00 0.00 0.00 69 1016.8
20260906032522 23 207 37.0 49.9 0.00 0.00 0.00 69 1016.9
20260906032415 23 194 33.8 46.7 0.00 0.00 0.00 69 1016.9
20260906032316 23 210 30.6 38.6 0.00 0.00 0.00 69 1016.8
20260906032233 23 198 29.0 38.6 0.00 0.00 0.00 69 1016.8
20260906032127 23 226 27.4 37.0 0.00 0.00 0.00 69 1016.8
20260906032022 23 197 25.7 35.4 0.00 0.00 0.00 69 1016.7
20260906031935 23 211 24.1 35.4 0.00 0.00 0.00 68 1016.7
20260906031832 23 216 24.1 35.4 0.00 0.00 0.00 68 1016.7
20260906031725 23 197 25.7 35.4 0.00 0.00 0.00 68 1016.7
20260906031618 23 197 27.4 35.4 0.00 0.00 0.00 68 1016.7
20260906031517 23 192 27.4 35.4 0.00 0.00 0.00 67 1016.7
20260906031430 23 196 27.4 38.6 0.00 0.00 0.00 67 1016.7
20260906031328 23 184 25.7 38.6 0.00 0.00 0.00 67 1016.7
20260906031224 23 170 24.1 38.6 0.00 0.00 0.00 66 1016.7
20260906031123 23 173 24.1 38.6 0.00 0.00 0.00 66 1016.7
20260906031017 24 178 25.7 41.8 0.00 0.00 0.00 65 1016.7
20260906030930 24 167 27.4 41.8 0.00 0.00 0.00 65 1016.7
20260906030822 24 180 27.4 41.8 0.00 0.00 0.00 64 1016.8
20260906030720 25 186 27.4 41.8 0.00 0.00 0.00 63 1016.8
20260906030634 25 170 29.0 41.8 0.00 0.00 0.00 62 1016.8
20260906030529 25 191 29.0 41.8 0.00 0.00 0.00 62 1016.8
20260906030442 25 189 30.6 41.8 0.00 0.00 0.00 61 1016.8
20260906030335 25 174 30.6 41.8 0.00 0.00 0.00 60 1016.9
20260906030249 25 183 30.6 41.8 0.00 0.00 0.00 59 1017.0
20260906030144 26 184 30.6 41.8 0.00 0.00 0.00 58 1017.0
20260906030021 26 188 30.6 40.2 0.00 0.00 0.00 57 1017.1
20260906025934 26 191 29.0 40.2 0.00 0.00 0.00 57 1017.0
20260906025826 26 192 30.6 40.2 0.00 0.00 0.00 57 1017.1
20260906025718 26 183 32.2 40.2 0.00 0.00 0.00 56 1017.1
20260906025636 26 185 30.6 40.2 0.00 0.00 0.00 56 1017.1
20260906025552 26 194 29.0 40.2 0.00 0.00 0.00 56 1017.1
20260906025447 26 193 29.0 40.2 0.00 0.00 0.00 55 1017.1
20260906025322 26 201 30.6 40.2 0.00 0.00 0.00 54 1017.2
20260906025219 26 193 25.7 40.2 0.00 0.00 0.00 53 1017.2
20260906025133 26 191 24.1 30.6 0.00 0.00 0.00 52 1017.1
20260906025028 26 192 24.1 30.6 0.00 0.00 0.00 51 1017.0
20260906024944 26 185 24.1 30.6 0.00 0.00 0.00 51 1017.0
20260906024820 26 216 22.5 27.4 0.00 0.00 0.00 52 1016.9
20260906024718 26 201 22.5 27.4 0.00 0.00 0.00 52 1016.9
20260906024632 26 218 20.9 27.4 0.00 0.00 0.00 52 1016.8
20260906024529 26 212 19.3 27.4 0.00 0.00 0.00 52 1016.9
20260906024445 26 205 17.7 27.4 0.00 0.00 0.00 53 1016.8
20260906024347 26 207 17.7 24.1 0.00 0.00 0.00 53 1016.8
20260906024240 26 198 17.7 24.1 0.00 0.00 0.00 53 1016.7
20260906024154 26 207 16.1 24.1 0.00 0.00 0.00 53 1016.7
20260906024027 26 211 17.7 24.1 0.00 0.00 0.00 53 1016.7
20260906023924 26 209 17.7 24.1 0.00 0.00 0.00 54 1016.6
20260906023825 26 213 17.7 24.1 0.00 0.00 0.00 54 1016.6
20260906023738 26 197 17.7 24.1 0.00 0.00 0.00 54 1016.6
20260906023655 26 230 16.1 20.9 0.00 0.00 0.00 55 1016.5
20260906023549 26 217 16.1 20.9 0.00 0.00 0.00 55 1016.5
20260906023442 26 217 14.5 20.9 0.00 0.00 0.00 56 1016.4
20260906023335 26 230 16.1 20.9 0.00 0.00 0.00 56 1016.4
20260906023229 26 227 16.1 20.9 0.00 0.00 0.00 56 1016.4
20260906023122 26 236 16.1 20.9 0.00 0.00 0.00 56 1016.5
20260906023037 26 237 17.7 20.9 0.00 0.00 0.00 56 1016.4
20260906022929 26 227 17.7 20.9 0.00 0.00 0.00 56 1016.6
20260906022829 26 233 17.7 20.9 0.00 0.00 0.00 55 1016.5
20260906022727 26 234 17.7 24.1 0.00 0.00 0.00 55 1016.6
20260906022620 26 223 19.3 24.1 0.00 0.00 0.00 55 1016.5
20260906022521 26 217 17.7 24.1 0.00 0.00 0.00 55 1016.5
20260906022416 26 233 16.1 24.1 0.00 0.00 0.00 55 1016.5
20260906022329 26 218 16.1 24.1 0.00 0.00 0.00 54 1016.5
20260906022226 26 225 16.1 25.7 0.00 0.00 0.00 54 1016.4
20260906022122 26 221 16.1 25.7 0.00 0.00 0.00 54 1016.4
20260906022022 26 214 17.7 25.7 0.00 0.00 0.00 54 1016.4
20260906021935 26 198 17.7 25.7 0.00 0.00 0.00 53 1016.4
20260906021829 26 207 17.7 29.0 0.00 0.00 0.00 53 1016.3
20260906021723 27 202 19.3 29.0 0.00 0.00 0.00 53 1016.3
20260906021639 27 213 19.3 30.6 0.00 0.00 0.00 52 1016.3
20260906021554 27 207 17.7 30.6 0.00 0.00 0.00 52 1016.3
20260906021424 27 223 19.3 30.6 0.00 0.00 0.00 51 1016.3
20260906021318 27 208 19.3 30.6 0.00 0.00 0.00 51 1016.3
20260906021232 27 218 19.3 30.6 0.00 0.00 0.00 51 1016.1
20260906021128 27 225 19.3 30.6 0.00 0.00 0.00 50 1016.1
20260906021027 27 225 22.5 30.6 0.00 0.00 0.00 50 1016.1
20260906020924 27 222 25.7 30.6 0.00 0.00 0.00 50 1016.1
20260906020824 27 222 25.7 30.6 0.00 0.00 0.00 50 1016.1
20260906020716 27 225 22.5 30.6 0.00 0.00 0.00 50 1016.0
20260906020631 27 241 19.3 29.0 0.00 0.00 0.00 50 1016.0
20260906020527 27 236 16.1 24.1 0.00 0.00 0.00 50 1016.0
20260906020421 27 227 14.5 24.1 0.00 0.00 0.00 51 1016.0
20260906020318 27 236 16.1 24.1 0.00 0.00 0.00 51 1016.0
20260906020219 27 224 17.7 24.1 0.00 0.00 0.00 52 1016.0
20260906020133 26 227 17.7 24.1 0.00 0.00 0.00 52 1015.9
20260906020028 26 229 17.7 24.1 0.00 0.00 0.00 53 1016.0
20260906015921 26 233 19.3 24.1 0.00 0.00 0.00 54 1015.9
20260906015818 26 236 19.3 24.1 0.00 0.00 0.00 54 1015.8
20260906015732 26 231 17.7 22.5 0.00 0.00 0.00 54 1015.9
20260906015629 26 236 16.1 20.9 0.00 0.00 0.00 54 1015.8
20260906015527 26 259 14.5 19.3 0.00 0.00 0.00 55 1015.8
20260906015421 26 234 12.9 17.7 0.00 0.00 0.00 54 1015.8
20260906015315 26 240 12.9 17.7 0.00 0.00 0.00 54 1015.8
20260906015232 26 228 14.5 17.7 0.00 0.00 0.00 54 1015.7
20260906015146 26 232 14.5 17.7 0.00 0.00 0.00 54 1015.6
20260906015020 26 221 14.5 17.7 0.00 0.00 0.00 54 1015.7
20260906014913 26 223 12.9 16.1 0.00 0.00 0.00 54 1015.6
20260906014831 26 215 12.9 16.1 0.00 0.00 0.00 54 1015.6
20260906014729 26 232 12.9 19.3 0.00 0.00 0.00 54 1015.5
20260906014647 26 250 12.9 22.5 0.00 0.00 0.00 54 1015.5
20260906014543 26 224 12.9 22.5 0.00 0.00 0.00 54 1015.5
20260906014457 26 227 12.9 25.7 0.00 0.00 0.00 54 1015.4
20260906014329 26 209 12.9 25.7 0.00 0.00 0.00 54 1015.5
20260906014226 26 227 12.9 25.7 0.00 0.00 0.00 54 1015.5
20260906014119 26 232 12.9 25.7 0.00 0.00 0.00 53 1015.5
20260906014017 26 230 14.5 25.7 0.00 0.00 0.00 53 1015.5
20260906013929 26 244 16.1 25.7 0.00 0.00 0.00 53 1015.5
20260906013826 26 219 19.3 25.7 0.00 0.00 0.00 53 1015.5
20260906013723 26 238 19.3 27.4 0.00 0.00 0.00 53 1015.4
20260906013617 26 227 19.3 27.4 0.00 0.00 0.00 53 1015.4
20260906013533 26 236 19.3 29.0 0.00 0.00 0.00 54 1015.4
20260906013446 26 251 19.3 29.0 0.00 0.00 0.00 54 1015.4
20260906013318 26 241 19.3 32.2 0.00 0.00 0.00 54 1015.4
20260906013231 26 232 17.7 32.2 0.00 0.00 0.00 54 1015.4
20260906013125 26 241 17.7 33.8 0.00 0.00 0.00 54 1015.4
20260906013019 26 240 19.3 33.8 0.00 0.00 0.00 54 1015.4
20260906012932 26 239 20.9 33.8 0.00 0.00 0.00 54 1015.4
20260906012850 26 241 22.5 33.8 0.00 0.00 0.00 54 1015.4
20260906012723 26 232 22.5 33.8 0.00 0.00 0.00 54 1015.3
20260906012620 26 232 22.5 33.8 0.00 0.00 0.00 55 1015.2
20260906012517 26 242 24.1 33.8 0.00 0.00 0.00 55 1015.2
20260906012432 26 244 25.7 33.8 0.00 0.00 0.00 55 1015.1
20260906012324 26 255 25.7 33.8 0.00 0.00 0.00 56 1015.2
20260906012217 26 245 24.1 33.8 0.00 0.00 0.00 56 1015.2
20260906012130 26 250 24.1 30.6 0.00 0.00 0.00 55 1015.3
20260906012025 26 254 24.1 30.6 0.00 0.00 0.00 55 1015.3
20260906011938 26 265 20.9 27.4 0.00 0.00 0.00 54 1015.3
20260906011836 27 261 19.3 24.1 0.00 0.00 0.00 53 1015.2
20260906011750 27 242 16.1 20.9 0.00 0.00 0.00 53 1015.0
20260906011626 27 211 14.5 17.7 0.00 0.00 0.00 52 1014.9
20260906011524 27 195 12.9 17.7 0.00 0.00 0.00 52 1014.7
20260906011436 27 196 14.5 17.7 0.00 0.00 0.00 52 1014.7
20260906011328 27 189 14.5 17.7 0.00 0.00 0.00 52 1014.7
20260906011225 27 176 12.9 17.7 0.00 0.00 0.00 52 1014.6
20260906011122 27 180 11.3 16.1 0.00 0.00 0.00 52 1014.6
20260906011038 27 170 11.3 16.1 0.00 0.00 0.00 52 1014.6
20260906010934 27 159 11.3 16.1 0.00 0.00 0.00 52 1014.6
20260906010828 27 174 11.3 16.1 0.00 0.00 0.00 52 1014.6
20260906010725 27 189 11.3 16.1 0.00 0.00 0.00 52 1014.5
20260906010621 27 170 11.3 16.1 0.00 0.00 0.00 52 1014.6
20260906010536 27 172 9.7 16.1 0.00 0.00 0.00 52 1014.5
20260906010433 27 165 9.7 16.1 0.00 0.00 0.00 53 1014.5
20260906010325 27 145 9.7 16.1 0.00 0.00 0.00 53 1014.5
20260906010220 27 134 9.7 16.1 0.00 0.00 0.00 53 1014.5
20260906010124 27 140 9.7 16.1 0.00 0.00 0.00 53 1014.4
20260906010022 27 161 9.7 17.7 0.00 0.00 0.00 53 1014.5
20260906005938 27 144 11.3 17.7 0.00 0.00 0.00 53 1014.4
20260906005831 27 145 12.9 17.7 0.00 0.00 0.00 53 1014.4
20260906005728 27 147 11.3 17.7 0.00 0.00 0.00 53 1014.4
20260906005625 27 150 12.9 17.7 0.00 0.00 0.00 53 1014.4
20260906005520 27 136 12.9 17.7 0.00 0.00 0.00 53 1014.4
20260906005435 27 134 12.9 17.7 0.00 0.00 0.00 53 1014.4
20260906005333 27 140 11.3 17.7 0.00 0.00 0.00 53 1014.5
20260906005247 27 136 12.9 17.7 0.00 0.00 0.00 53 1014.4
20260906005121 27 149 12.9 17.7 0.00 0.00 0.00 53 1014.4
20260906005019 27 157 12.9 17.7 0.00 0.00 0.00 53 1014.4
20260906004932 27 142 14.5 17.7 0.00 0.00 0.00 53 1014.4
20260906004829 27 140 14.5 17.7 0.00 0.00 0.00 53 1014.4
20260906004725 27 156 14.5 17.7 0.00 0.00 0.00 53 1014.5
20260906004643 27 166 12.9 17.7 0.00 0.00 0.00 54 1014.5
20260906004539 27 206 11.3 16.1 0.00 0.00 0.00 54 1014.6
20260906004454 27 149 11.3 16.1 0.00 0.00 0.00 54 1014.7
20260906004354 27 163 11.3 16.1 0.00 0.00 0.00 54 1014.6
20260906004227 27 156 11.3 16.1 0.00 0.00 0.00 54 1014.7
20260906004120 27 173 11.3 16.1 0.00 0.00 0.00 55 1014.7
20260906004039 27 176 11.3 20.9 0.00 0.00 0.00 55 1014.7
20260906003933 27 165 11.3 20.9 0.00 0.00 0.00 55 1014.7
20260906003827 27 171 9.7 22.5 0.00 0.00 0.00 55 1014.7
20260906003724 27 167 9.7 22.5 0.00 0.00 0.00 55 1014.8
20260906003618 27 169 11.3 22.5 0.00 0.00 0.00 55 1014.8
20260906003536 27 171 11.3 22.5 0.00 0.00 0.00 55 1014.8
20260906003435 27 166 11.3 22.5 0.00 0.00 0.00 55 1014.9
20260906003327 27 193 12.9 22.5 0.00 0.00 0.00 55 1014.9
20260906003221 27 213 14.5 22.5 0.00 0.00 0.00 56 1015.0
20260906003135 27 226 14.5 22.5 0.00 0.00 0.00 56 1015.0
20260906003031 27 245 17.7 22.5 0.00 0.00 0.00 56 1015.0
20260906002949 27 240 16.1 22.5 0.00 0.00 0.00 56 1015.0
20260906002845 27 240 17.7 22.5 0.00 0.00 0.00 56 1015.1
20260906002759 27 242 17.7 22.5 0.00 0.00 0.00 55 1015.1
20260906002655 27 254 16.1 20.9 0.00 0.00 0.00 55 1015.0
20260906002529 27 259 16.1 20.9 0.00 0.00 0.00 55 1015.0
20260906002426 27 250 14.5 17.7 0.00 0.00 0.00 55 1014.9
20260906002322 27 250 12.9 16.1 0.00 0.00 0.00 55 1014.8
20260906002216 27 221 11.3 16.1 0.00 0.00 0.00 55 1014.7
20260906002131 27 221 9.7 22.5 0.00 0.00 0.00 55 1014.6
20260906002029 27 197 9.7 22.5 0.00 0.00 0.00 55 1014.6
20260906001922 27 186 11.3 22.5 0.00 0.00 0.00 54 1014.4
20260906001815 27 186 11.3 22.5 0.00 0.00 0.00 54 1014.5
20260906001713 28 165 12.9 22.5 0.00 0.00 0.00 54 1014.5
20260906001634 28 184 12.9 22.5 0.00 0.00 0.00 54 1014.5
20260906001529 28 180 12.9 22.5 0.00 0.00 0.00 54 1014.5
20260906001420 28 149 12.9 22.5 0.00 0.00 0.00 54 1014.5
20260906001317 28 156 14.5 24.1 0.00 0.00 0.00 54 1014.5
20260906001231 28 163 14.5 24.1 0.00 0.00 0.00 53 1014.5
20260906001128 28 157 12.9 25.7 0.00 0.00 0.00 53 1014.5
20260906001044 28 155 12.9 25.7 0.00 0.00 0.00 53 1014.5
20260906000940 28 158 11.3 25.7 0.00 0.00 0.00 53 1014.5
20260906000819 28 162 12.9 25.7 0.00 0.00 0.00 52 1014.5
20260906000739 28 168 14.5 25.7 0.00 0.00 0.00 52 1014.5
20260906000653 28 164 16.1 25.7 0.00 0.00 0.00 52 1014.5
20260906000527 28 179 16.1 25.7 0.00 0.00 0.00 51 1014.4
20260906000419 28 184 17.7 25.7 0.00 0.00 0.00 51 1014.4
20260906000333 28 161 19.3 25.7 0.00 0.00 0.00 51 1014.4
20260906000226 28 177 17.7 25.7 0.00 0.00 0.00 51 1014.4
20260906000123 28 182 16.1 22.5 0.00 0.00 0.00 51 1014.4
20260906000023 28 154 12.9 22.5 0.00 0.00 0.00 51 1014.3
20260905235935 28 157 12.9 22.5 0.00 0.00 0.00 51 1014.2
20260905235829 28 163 16.1 22.5 0.00 0.00 0.00 51 1014.2
20260905235725 28 169 19.3 22.5 0.00 0.00 0.00 51 1014.3
20260905235619 28 186 17.7 22.5 0.00 0.00 0.00 51 1014.3
20260905235534 28 184 14.5 20.9 0.00 0.00 0.00 51 1014.2
20260905235429 28 196 14.5 20.9 0.00 0.00 0.00 51 1014.1
20260905235323 28 159 14.5 20.9 0.00 0.00 0.00 51 1014.0
20260905235220 28 168 14.5 20.9 0.00 0.00 0.00 51 1013.9
20260905235134 28 163 14.5 20.9 0.00 0.00 0.00 51 1013.9
20260905235029 28 154 14.5 20.9 0.00 0.00 0.00 52 1013.8
20260905234921 28 160 16.1 20.9 0.00 0.00 0.00 51 1013.8
20260905234835 28 144 14.5 20.9 0.00 0.00 0.00 52 1013.8
20260905234731 28 143 12.9 22.5 0.00 0.00 0.00 52 1013.7
20260905234624 28 153 14.5 25.7 0.00 0.00 0.00 52 1013.7
20260905234518 28 148 14.5 25.7 0.00 0.00 0.00 52 1013.6
20260905234430 28 147 14.5 25.7 0.00 0.00 0.00 52 1013.6
20260905234344 28 145 14.5 25.7 0.00 0.00 0.00 52 1013.6
20260905234237 28 169 14.5 25.7 0.00 0.00 0.00 52 1013.7
20260905234155 28 142 16.1 25.7 0.00 0.00 0.00 53 1013.7
20260905234028 28 166 16.1 25.7 0.00 0.00 0.00 52 1013.7
20260905233919 28 155 17.7 25.7 0.00 0.00 0.00 52 1013.8
20260905233833 28 153 17.7 25.7 0.00 0.00 0.00 52 1013.8
20260905233727 28 165 19.3 25.7 0.00 0.00 0.00 52 1013.8
20260905233624 28 163 16.1 24.1 0.00 0.00 0.00 52 1013.8
20260905233525 28 153 14.5 24.1 0.00 0.00 0.00 52 1013.8
20260905233418 28 149 14.5 24.1 0.00 0.00 0.00 52 1013.8
20260905233316 28 160 14.5 24.1 0.00 0.00 0.00 52 1013.8
20260905233217 28 167 16.1 24.1 0.00 0.00 0.00 52 1013.8
20260905233130 28 171 16.1 24.1 0.00 0.00 0.00 52 1013.8
20260905233027 28 168 17.7 24.1 0.00 0.00 0.00 52 1013.8
20260905232942 28 166 17.7 24.1 0.00 0.00 0.00 52 1013.8
20260905232858 28 161 16.1 24.1 0.00 0.00 0.00 52 1013.8
20260905232729 28 147 17.7 22.5 0.00 0.00 0.00 52 1013.8
20260905232622 28 159 17.7 22.5 0.00 0.00 0.00 52 1013.7
20260905232537 28 141 17.7 20.9 0.00 0.00 0.00 52 1013.7
20260905232433 28 155 16.1 20.9 0.00 0.00 0.00 52 1013.7
20260905232326 28 159 14.5 25.7 0.00 0.00 0.00 52 1013.7
20260905232226 28 162 14.5 25.7 0.00 0.00 0.00 52 1013.8
20260905232123 28 148 12.9 25.7 0.00 0.00 0.00 52 1013.8
20260905232019 28 156 12.9 25.7 0.00 0.00 0.00 52 1013.8
20260905231933 28 163 11.3 25.7 0.00 0.00 0.00 52 1013.8
20260905231850 28 170 12.9 25.7 0.00 0.00 0.00 52 1013.9
20260905231743 28 160 16.1 29.0 0.00 0.00 0.00 52 1013.9
20260905231617 28 183 16.1 30.6 0.00 0.00 0.00 51 1013.9
20260905231532 28 172 17.7 30.6 0.00 0.00 0.00 51 1014.0
20260905231447 29 185 17.7 30.6 0.00 0.00 0.00 51 1014.1
20260905231326 29 180 17.7 30.6 0.00 0.00 0.00 50 1014.0
20260905231219 29 184 17.7 30.6 0.00 0.00 0.00 50 1014.1
20260905231133 29 188 17.7 30.6 0.00 0.00 0.00 49 1014.1
20260905231031 29 172 19.3 30.6 0.00 0.00 0.00 49 1014.0
20260905230926 29 178 20.9 30.6 0.00 0.00 0.00 48 1014.1
20260905230819 29 185 24.1 30.6 0.00 0.00 0.00 48 1014.1
20260905230736 29 178 24.1 30.6 0.00 0.00 0.00 47 1014.1
20260905230649 29 178 22.5 30.6 0.00 0.00 0.00 47 1014.1
20260905230546 29 184 20.9 27.4 0.00 0.00 0.00 46 1014.1
20260905230438 29 177 17.7 25.7 0.00 0.00 0.00 46 1014.1
20260905230356 29 157 14.5 20.9 0.00 0.00 0.00 47 1014.1
20260905230232 29 161 14.5 22.5 0.00 0.00 0.00 47 1014.1
20260905230126 29 167 12.9 24.1 0.00 0.00 0.00 47 1014.1
20260905230022 29 167 12.9 24.1 0.00 0.00 0.00 47 1014.1
20260905225921 29 173 12.9 24.1 0.00 0.00 0.00 47 1014.1
20260905225835 30 173 14.5 24.1 0.00 0.00 0.00 47 1014.1
20260905225729 30 159 14.5 24.1 0.00 0.00 0.00 47 1014.1
20260905225630 30 184 14.5 24.1 0.00 0.00 0.00 48 1013.9
20260905225550 30 150 16.1 24.1 0.00 0.00 0.00 48 1014.0
20260905225425 30 150 16.1 24.1 0.00 0.00 0.00 48 1013.9
20260905225319 29 146 17.7 24.1 0.00 0.00 0.00 48 1013.9
20260905225218 29 146 17.7 24.1 0.00 0.00 0.00 49 1013.9
20260905225134 29 165 17.7 22.5 0.00 0.00 0.00 49 1014.0
20260905225028 29 138 14.5 19.3 0.00 0.00 0.00 49 1014.0
20260905224943 29 147 12.9 19.3 0.00 0.00 0.00 49 1014.0
20260905224856 29 136 12.9 20.9 0.00 0.00 0.00 49 1013.9
20260905224728 29 138 12.9 20.9 0.00 0.00 0.00 50 1013.8
20260905224626 29 135 12.9 20.9 0.00 0.00 0.00 50 1013.9
20260905224522 29 145 12.9 20.9 0.00 0.00 0.00 50 1013.9
20260905224414 29 153 12.9 20.9 0.00 0.00 0.00 50 1013.9
20260905224330 29 153 12.9 20.9 0.00 0.00 0.00 50 1013.8
20260905224228 29 177 14.5 24.1 0.00 0.00 0.00 50 1013.8
20260905224141 29 165 12.9 27.4 0.00 0.00 0.00 51 1013.9
20260905224035 29 158 14.5 27.4 0.00 0.00 0.00 51 1013.9
20260905223952 29 157 14.5 27.4 0.00 0.00 0.00 52 1013.8
20260905223827 29 166 14.5 27.4 0.00 0.00 0.00 52 1013.8
20260905223725 29 173 14.5 27.4 0.00 0.00 0.00 52 1013.8
20260905223621 29 159 16.1 27.4 0.00 0.00 0.00 51 1013.7
20260905223539 29 144 17.7 27.4 0.00 0.00 0.00 51 1013.7
20260905223455 29 150 19.3 27.4 0.00 0.00 0.00 51 1013.6
20260905223329 29 146 20.9 27.4 0.00 0.00 0.00 51 1013.6
20260905223222 29 166 22.5 27.4 0.00 0.00 0.00 52 1013.5
20260905223117 29 154 20.9 27.4 0.00 0.00 0.00 52 1013.5
20260905223031 29 142 19.3 27.4 0.00 0.00 0.00 52 1013.5
20260905222928 29 132 19.3 27.4 0.00 0.00 0.00 53 1013.5
20260905222846 29 119 16.1 27.4 0.00 0.00 0.00 53 1013.5
20260905222740 29 148 14.5 27.4 0.00 0.00 0.00 52 1013.6
20260905222632 29 136 14.5 29.0 0.00 0.00 0.00 52 1013.5
20260905222526 29 139 16.1 29.0 0.00 0.00 0.00 52 1013.5
20260905222439 29 132 17.7 29.0 0.00 0.00 0.00 51 1013.6
20260905222332 29 142 17.7 29.0 0.00 0.00 0.00 51 1013.6
20260905222225 29 136 19.3 29.0 0.00 0.00 0.00 51 1013.6
20260905222123 29 135 20.9 29.0 0.00 0.00 0.00 51 1013.6
20260905222039 29 141 22.5 29.0 0.00 0.00 0.00 51 1013.7
20260905222002 30 136 20.9 29.0 0.00 0.00 0.00 51 1013.7
20260905221856 30 133 20.9 29.0 0.00 0.00 0.00 51 1013.8
20260905221728 30 135 20.9 29.0 0.00 0.00 0.00 50 1013.9
20260905221624 30 140 20.9 27.4 0.00 0.00 0.00 49 1013.9
20260905221522 30 185 20.9 27.4 0.00 0.00 0.00 49 1014.0
20260905221415 30 166 20.9 27.4 0.00 0.00 0.00 49 1014.1
20260905221333 30 167 19.3 27.4 0.00 0.00 0.00 48 1014.1
20260905221227 30 146 17.7 27.4 0.00 0.00 0.00 49 1014.1
20260905221119 30 161 17.7 27.4 0.00 0.00 0.00 49 1014.1
20260905221038 30 167 17.7 40.2 0.00 0.00 0.00 50 1014.1
20260905220936 31 184 20.9 40.2 0.00 0.00 0.00 49 1014.2
20260905220832 31 178 20.9 40.2 0.00 0.00 0.00 49 1014.1
20260905220725 31 190 17.7 40.2 0.00 0.00 0.00 49 1014.1
20260905220639 31 170 14.5 40.2 0.00 0.00 0.00 48 1014.0
20260905220536 31 164 16.1 40.2 0.00 0.00 0.00 48 1014.0
20260905220429 31 149 16.1 40.2 0.00 0.00 0.00 48 1014.0
20260905220322 31 171 19.3 40.2 0.00 0.00 0.00 48 1014.1
20260905220235 30 161 22.5 40.2 0.00 0.00 0.00 48 1014.1
20260905220134 30 158 24.1 40.2 0.00 0.00 0.00 48 1014.1
20260905220029 30 204 17.7 29.0 0.00 0.00 0.00 49 1014.1
20260905215924 31 200 16.1 25.7 0.00 0.00 0.00 49 1014.0
20260905215817 31 213 19.3 25.7 0.00 0.00 0.00 49 1014.1
20260905215730 31 208 19.3 25.7 0.00 0.00 0.00 48 1014.1
20260905215644 31 143 14.5 22.5 0.00 0.00 0.00 48 1014.1
20260905215520 31 169 11.3 16.1 0.00 0.00 0.00 48 1014.2
20260905215434 31 186 9.7 16.1 0.00 0.00 0.00 48 1014.1
20260905215332 31 158 9.7 16.1 0.00 0.00 0.00 48 1014.2
20260905215229 31 174 9.7 16.1 0.00 0.00 0.00 48 1014.2
20260905215123 31 167 11.3 17.7 0.00 0.00 0.00 47 1014.2
20260905215017 31 164 11.3 17.7 0.00 0.00 0.00 47 1014.2
20260905214933 31 161 11.3 17.7 0.00 0.00 0.00 47 1014.2
20260905214827 31 175 11.3 17.7 0.00 0.00 0.00 47 1014.3
20260905214725 31 161 11.3 17.7 0.00 0.00 0.00 47 1014.2
20260905214621 31 155 11.3 17.7 0.00 0.00 0.00 47 1014.2
20260905214526 31 147 12.9 17.7 0.00 0.00 0.00 47 1014.2
20260905214419 31 145 12.9 17.7 0.00 0.00 0.00 47 1014.3
20260905214333 31 138 12.9 17.7 0.00 0.00 0.00 47 1014.3
20260905214225 31 150 11.3 17.7 0.00 0.00 0.00 47 1014.3
20260905214118 31 155 11.3 17.7 0.00 0.00 0.00 47 1014.3
20260905214017 31 124 11.3 17.7 0.00 0.00 0.00 47 1014.3
20260905213933 31 144 11.3 17.7 0.00 0.00 0.00 46 1014.4
20260905213826 31 150 12.9 17.7 0.00 0.00 0.00 47 1014.4
20260905213727 31 146 11.3 17.7 0.00 0.00 0.00 46 1014.4
20260905213620 31 159 11.3 17.7 0.00 0.00 0.00 46 1014.4
20260905213517 31 132 11.3 17.7 0.00 0.00 0.00 46 1014.4
20260905213433 31 156 11.3 19.3 0.00 0.00 0.00 46 1014.4
20260905213328 31 150 11.3 19.3 0.00 0.00 0.00 46 1014.4
20260905213225 31 146 11.3 19.3 0.00 0.00 0.00 46 1014.4
20260905213139 31 127 12.9 19.3 0.00 0.00 0.00 46 1014.4
20260905213053 31 138 12.9 19.3 0.00 0.00 0.00 46 1014.4
20260905212929 31 143 12.9 19.3 0.00 0.00 0.00 46 1014.5
20260905212826 31 123 12.9 19.3 0.00 0.00 0.00 46 1014.5
20260905212723 31 152 12.9 19.3 0.00 0.00 0.00 46 1014.5
20260905212637 31 155 12.9 19.3 0.00 0.00 0.00 46 1014.5
20260905212555 31 126 14.5 19.3 0.00 0.00 0.00 46 1014.5
20260905212426 31 145 14.5 20.9 0.00 0.00 0.00 46 1014.6
20260905212323 31 134 12.9 19.3 0.00 0.00 0.00 46 1014.6
20260905212223 31 141 12.9 19.3 0.00 0.00 0.00 46 1014.6
20260905212120 31 140 12.9 20.9 0.00 0.00 0.00 46 1014.5
20260905212035 31 128 12.9 20.9 0.00 0.00 0.00 46 1014.5
20260905211928 31 140 12.9 20.9 0.00 0.00 0.00 46 1014.5
20260905211824 31 153 12.9 20.9 0.00 0.00 0.00 46 1014.5
20260905211716 31 132 12.9 20.9 0.00 0.00 0.00 46 1014.4
20260905211633 31 120 12.9 20.9 0.00 0.00 0.00 46 1014.4
20260905211529 31 135 14.5 22.5 0.00 0.00 0.00 46 1014.4
20260905211422 31 99 16.1 22.5 0.00 0.00 0.00 46 1014.4
20260905211336 31 128 14.5 22.5 0.00 0.00 0.00 46 1014.4
20260905211233 31 128 14.5 24.1 0.00 0.00 0.00 46 1014.4
20260905211125 31 112 12.9 24.1 0.00 0.00 0.00 46 1014.4
20260905211021 31 131 14.5 29.0 0.00 0.00 0.00 46 1014.4
20260905210934 31 128 14.5 29.0 0.00 0.00 0.00 46 1014.4
20260905210828 31 131 14.5 29.0 0.00 0.00 0.00 46 1014.4
20260905210746 31 114 16.1 29.0 0.00 0.00 0.00 46 1014.4
20260905210703 31 125 17.7 29.0 0.00 0.00 0.00 46 1014.4
20260905210557 31 125 17.7 29.0 0.00 0.00 0.00 46 1014.3
20260905210429 31 128 17.7 29.0 0.00 0.00 0.00 46 1014.3
20260905210330 31 96 17.7 29.0 0.00 0.00 0.00 46 1014.3
20260905210227 31 137 20.9 29.0 0.00 0.00 0.00 46 1014.3
20260905210121 31 136 19.3 29.0 0.00 0.00 0.00 46 1014.2
20260905210020 31 111 16.1 27.4 0.00 0.00 0.00 46 1014.2
20260905205933 31 111 17.7 27.4 0.00 0.00 0.00 46 1014.2
20260905205827 31 112 19.3 27.4 0.00 0.00 0.00 46 1014.2
20260905205741 31 131 19.3 27.4 0.00 0.00 0.00 46 1014.2
20260905205617 31 131 19.3 27.4 0.00 0.00 0.00 46 1014.2
20260905205536 31 112 20.9 27.4 0.00 0.00 0.00 46 1014.3
20260905205451 31 138 19.3 27.4 0.00 0.00 0.00 46 1014.3
20260905205327 31 113 19.3 27.4 0.00 0.00 0.00 46 1014.4
20260905205221 31 134 19.3 27.4 0.00 0.00 0.00 46 1014.4
20260905205118 31 137 20.9 25.7 0.00 0.00 0.00 46 1014.4
20260905205033 31 117 19.3 25.7 0.00 0.00 0.00 46 1014.5
20260905204926 31 112 19.3 24.1 0.00 0.00 0.00 46 1014.5